Wetterdaten: Donnerstag, 30.12.2021
Datum Zeit Temp. Aussen Temp. o. S. Temp +5cm Feuchte Auss Luftdruck Regen Sonnenschein Regendauer Solar Windben Empfang
30.12.2021 00:00 12,0 C 11,1 C 10,0 C 96 % 1011,0 hPa 0,0 l/m 0 min 0 min 0 W/m 12,9 km/h (3 Bft) 93,62 %
30.12.2021 00:02 12,0 C 11,1 C 10,0 C 96 % 1011,1 hPa 0,0 l/m 0 min 0 min 0 W/m 12,9 km/h (3 Bft) 100,00 %
30.12.2021 00:04 11,9 C 11,1 C 10,0 C 96 % 1011,1 hPa 0,0 l/m 0 min 0 min 0 W/m 25,7 km/h (4 Bft) 97,87 %
30.12.2021 00:08 11,9 C 11,1 C 10,0 C 96 % 1011,1 hPa 0,0 l/m 0 min 0 min 0 W/m 19,3 km/h (3 Bft) 98,94 %
30.12.2021 00:10 12,0 C 11,1 C 10,0 C 96 % 1011,2 hPa 0,0 l/m 0 min 0 min 0 W/m 12,9 km/h (3 Bft) 97,83 %
30.12.2021 00:12 11,9 C 11,1 C 10,0 C 96 % 1011,3 hPa 0,0 l/m 0 min 0 min 0 W/m 16,1 km/h (3 Bft) 100,00 %
30.12.2021 00:14 11,9 C 11,1 C 10,0 C 96 % 1011,3 hPa 0,0 l/m 0 min 0 min 0 W/m 12,9 km/h (3 Bft) 97,87 %
30.12.2021 00:16 11,9 C 11,1 C 10,0 C 96 % 1011,3 hPa 0,0 l/m 0 min 0 min 0 W/m 19,3 km/h (3 Bft) 95,74 %
30.12.2021 00:18 11,9 C 11,1 C 10,0 C 96 % 1011,4 hPa 0,0 l/m 0 min 0 min 0 W/m 9,7 km/h (2 Bft) 95,74 %
30.12.2021 00:20 11,9 C 11,1 C 10,0 C 96 % 1011,4 hPa 0,0 l/m 0 min 0 min 0 W/m 16,1 km/h (3 Bft) 95,65 %
30.12.2021 00:22 11,9 C 11,1 C 10,0 C 96 % 1011,5 hPa 0,0 l/m 0 min 0 min 0 W/m 6,4 km/h (2 Bft) 97,87 %
30.12.2021 00:24 11,9 C 11,1 C 10,0 C 96 % 1011,5 hPa 0,0 l/m 0 min 0 min 0 W/m 6,4 km/h (2 Bft) 95,74 %
30.12.2021 00:26 11,9 C 11,1 C 10,0 C 96 % 1011,5 hPa 0,0 l/m 0 min 0 min 0 W/m 12,9 km/h (3 Bft) 97,87 %
30.12.2021 00:28 11,9 C 11,1 C 10,0 C 95 % 1011,5 hPa 0,0 l/m 0 min 0 min 0 W/m 9,7 km/h (2 Bft) 93,62 %
30.12.2021 00:30 11,8 C 11,1 C 10,0 C 95 % 1011,5 hPa 0,0 l/m 0 min 0 min 0 W/m 12,9 km/h (3 Bft) 95,74 %
30.12.2021 00:32 11,8 C 11,1 C 10,0 C 95 % 1011,4 hPa 0,0 l/m 0 min 0 min 0 W/m 16,1 km/h (3 Bft) 93,48 %
30.12.2021 00:34 11,8 C 11,1 C 10,0 C 95 % 1011,3 hPa 0,0 l/m 0 min 0 min 0 W/m 12,9 km/h (3 Bft) 95,74 %
30.12.2021 00:36 11,8 C 11,1 C 10,0 C 95 % 1011,3 hPa 0,0 l/m 0 min 0 min 0 W/m 9,7 km/h (2 Bft) 95,74 %
30.12.2021 00:38 11,8 C 11,1 C 10,0 C 96 % 1011,2 hPa 0,0 l/m 0 min 0 min 0 W/m 6,4 km/h (2 Bft) 93,62 %
30.12.2021 00:42 11,8 C 10,6 C 10,0 C 95 % 1011,2 hPa 0,0 l/m 0 min 0 min 0 W/m 6,4 km/h (2 Bft) 96,43 %
30.12.2021 00:44 11,8 C 10,6 C 9,4 C 95 % 1011,2 hPa 0,0 l/m 0 min 0 min 0 W/m 3,2 km/h (1 Bft) 94,34 %
30.12.2021 00:46 11,7 C 10,6 C 9,4 C 95 % 1011,2 hPa 0,0 l/m 0 min 0 min 0 W/m 22,5 km/h (4 Bft) 97,56 %
30.12.2021 00:48 11,7 C 10,6 C 9,4 C 95 % 1011,2 hPa 0,0 l/m 0 min 0 min 0 W/m 6,4 km/h (2 Bft) 92,86 %
30.12.2021 00:50 11,7 C 10,6 C 9,4 C 95 % 1011,2 hPa 0,0 l/m 0 min 0 min 0 W/m 9,7 km/h (2 Bft) 95,74 %
30.12.2021 00:52 11,7 C 10,6 C 9,4 C 95 % 1011,4 hPa 0,0 l/m 0 min 0 min 0 W/m 12,9 km/h (3 Bft) 95,74 %
30.12.2021 00:54 11,7 C 10,6 C 9,4 C 95 % 1011,4 hPa 0,0 l/m 0 min 0 min 0 W/m 6,4 km/h (2 Bft) 97,87 %
30.12.2021 00:56 11,6 C 10,6 C 9,4 C 95 % 1011,6 hPa 0,0 l/m 0 min 0 min 0 W/m 9,7 km/h (2 Bft) 97,83 %
30.12.2021 00:58 11,6 C 10,6 C 9,4 C 95 % 1011,6 hPa 0,0 l/m 0 min 0 min 0 W/m 12,9 km/h (3 Bft) 44,74 %
30.12.2021 01:00 11,6 C 10,6 C 9,4 C 95 % 1011,6 hPa 0,0 l/m 0 min 0 min 0 W/m 9,7 km/h (2 Bft) 97,92 %
30.12.2021 01:02 11,6 C 10,6 C 9,4 C 95 % 1011,6 hPa 0,0 l/m 0 min 0 min 0 W/m 9,7 km/h (2 Bft) 100,00 %
30.12.2021 01:04 11,6 C 10,6 C 9,4 C 95 % 1011,6 hPa 0,0 l/m 0 min 0 min 0 W/m 12,9 km/h (3 Bft) 100,00 %
30.12.2021 01:06 11,6 C 10,6 C 9,4 C 95 % 1011,7 hPa 0,0 l/m 0 min 0 min 0 W/m 3,2 km/h (1 Bft) 100,00 %
30.12.2021 01:08 11,5 C 10,6 C 9,4 C 96 % 1011,8 hPa 0,0 l/m 0 min 0 min 0 W/m 6,4 km/h (2 Bft) 100,00 %
30.12.2021 01:10 11,5 C 10,6 C 9,4 C 96 % 1011,7 hPa 0,0 l/m 0 min 0 min 0 W/m 6,4 km/h (2 Bft) 100,00 %
30.12.2021 01:12 11,5 C 10,6 C 9,4 C 96 % 1011,8 hPa 0,0 l/m 0 min 0 min 0 W/m 19,3 km/h (3 Bft) 100,00 %
30.12.2021 01:14 11,5 C 10,6 C 9,4 C 96 % 1011,8 hPa 0,0 l/m 0 min 0 min 0 W/m 12,9 km/h (3 Bft) 100,00 %
30.12.2021 01:16 11,5 C 10,6 C 9,4 C 96 % 1011,8 hPa 0,0 l/m 0 min 0 min 0 W/m 16,1 km/h (3 Bft) 100,00 %
30.12.2021 01:20 11,5 C 10,6 C 9,4 C 96 % 1011,9 hPa 0,0 l/m 0 min 0 min 0 W/m 12,9 km/h (3 Bft) 98,06 %
30.12.2021 01:22 11,5 C 10,6 C 9,4 C 96 % 1011,9 hPa 0,0 l/m 0 min 0 min 0 W/m 6,4 km/h (2 Bft) 100,00 %
30.12.2021 01:24 11,4 C 10,6 C 9,4 C 96 % 1011,9 hPa 0,0 l/m 0 min 0 min 0 W/m 9,7 km/h (2 Bft) 100,00 %
30.12.2021 01:26 11,4 C 10,6 C 9,4 C 96 % 1011,9 hPa 0,0 l/m 0 min 0 min 0 W/m 12,9 km/h (3 Bft) 100,00 %
30.12.2021 01:28 11,4 C 10,6 C 9,4 C 96 % 1012,0 hPa 0,0 l/m 0 min 0 min 0 W/m 6,4 km/h (2 Bft) 97,87 %
30.12.2021 01:30 11,4 C 10,6 C 9,4 C 96 % 1011,9 hPa 0,0 l/m 0 min 0 min 0 W/m 12,9 km/h (3 Bft) 100,00 %
30.12.2021 01:32 11,4 C 10,6 C 9,4 C 96 % 1011,9 hPa 0,0 l/m 0 min 0 min 0 W/m 16,1 km/h (3 Bft) 100,00 %
30.12.2021 01:34 11,4 C 10,6 C 9,4 C 96 % 1012,0 hPa 0,0 l/m 0 min 0 min 0 W/m 12,9 km/h (3 Bft) 100,00 %
30.12.2021 01:36 11,4 C 10,6 C 9,4 C 96 % 1012,1 hPa 0,0 l/m 0 min 0 min 0 W/m 19,3 km/h (3 Bft) 100,00 %
30.12.2021 01:38 11,4 C 10,6 C 9,4 C 96 % 1012,0 hPa 0,0 l/m 0 min 0 min 0 W/m 12,9 km/h (3 Bft) 100,00 %
30.12.2021 01:40 11,4 C 10,6 C 9,4 C 96 % 1012,1 hPa 0,0 l/m 0 min 0 min 0 W/m 12,9 km/h (3 Bft) 97,87 %
30.12.2021 01:42 11,4 C 10,6 C 9,4 C 96 % 1012,2 hPa 0,0 l/m 0 min 0 min 0 W/m 16,1 km/h (3 Bft) 100,00 %
30.12.2021 01:44 11,4 C 10,6 C 9,4 C 96 % 1012,2 hPa 0,0 l/m 0 min 0 min 0 W/m 12,9 km/h (3 Bft) 97,87 %
30.12.2021 01:46 11,4 C 10,6 C 9,4 C 96 % 1012,1 hPa 0,0 l/m 0 min 0 min 0 W/m 19,3 km/h (3 Bft) 100,00 %
30.12.2021 01:48 11,4 C 10,6 C 9,4 C 96 % 1012,1 hPa 0,0 l/m 0 min 0 min 0 W/m 12,9 km/h (3 Bft) 100,00 %
30.12.2021 01:50 11,4 C 10,6 C 9,4 C 96 % 1012,2 hPa 0,0 l/m 0 min 0 min 0 W/m 19,3 km/h (3 Bft) 100,00 %
30.12.2021 01:52 11,4 C 10,6 C 9,4 C 96 % 1012,2 hPa 0,0 l/m 0 min 0 min 0 W/m 16,1 km/h (3 Bft) 100,00 %
30.12.2021 01:54 11,4 C 10,6 C 9,4 C 96 % 1012,2 hPa 0,0 l/m 0 min 0 min 0 W/m 12,9 km/h (3 Bft) 100,00 %
30.12.2021 01:56 11,4 C 10,6 C 9,4 C 96 % 1012,1 hPa 0,0 l/m 0 min 0 min 0 W/m 16,1 km/h (3 Bft) 100,00 %
30.12.2021 01:58 11,4 C 10,6 C 9,4 C 96 % 1012,2 hPa 0,0 l/m 0 min 0 min 0 W/m 12,9 km/h (3 Bft) 100,00 %
30.12.2021 02:00 11,4 C 10,6 C 9,4 C 96 % 1012,2 hPa 0,0 l/m 0 min 0 min 0 W/m 12,9 km/h (3 Bft) 100,00 %
30.12.2021 02:02 11,5 C 10,6 C 9,4 C 96 % 1012,2 hPa 0,0 l/m 0 min 0 min 0 W/m 16,1 km/h (3 Bft) 97,87 %
30.12.2021 02:04 11,5 C 10,6 C 9,4 C 96 % 1012,2 hPa 0,0 l/m 0 min 0 min 0 W/m 6,4 km/h (2 Bft) 97,87 %
30.12.2021 02:06 11,4 C 10,6 C 9,4 C 96 % 1012,2 hPa 0,0 l/m 0 min 0 min 0 W/m 6,4 km/h (2 Bft) 97,87 %
30.12.2021 02:08 11,4 C 10,6 C 9,4 C 96 % 1012,2 hPa 0,0 l/m 0 min 0 min 0 W/m 9,7 km/h (2 Bft) 97,83 %
30.12.2021 02:10 11,4 C 10,6 C 9,4 C 96 % 1012,1 hPa 0,0 l/m 0 min 0 min 0 W/m 22,5 km/h (4 Bft) 97,87 %
30.12.2021 02:12 11,5 C 10,6 C 9,4 C 96 % 1012,2 hPa 0,0 l/m 0 min 0 min 0 W/m 9,7 km/h (2 Bft) 97,87 %
30.12.2021 02:14 11,5 C 10,6 C 9,4 C 96 % 1012,2 hPa 0,0 l/m 0 min 0 min 0 W/m 9,7 km/h (2 Bft) 97,87 %
30.12.2021 02:16 11,5 C 10,6 C 9,4 C 96 % 1012,2 hPa 0,0 l/m 0 min 0 min 0 W/m 16,1 km/h (3 Bft) 97,22 %
30.12.2021 02:18 11,5 C 10,6 C 9,4 C 96 % 1012,2 hPa 0,0 l/m 0 min 0 min 0 W/m 12,9 km/h (3 Bft) 97,87 %
30.12.2021 02:20 11,5 C 10,6 C 9,4 C 96 % 1012,2 hPa 0,0 l/m 0 min 0 min 0 W/m 16,1 km/h (3 Bft) 95,74 %
30.12.2021 02:22 11,5 C 10,6 C 9,4 C 96 % 1012,3 hPa 0,0 l/m 0 min 0 min 0 W/m 16,1 km/h (3 Bft) 97,83 %
30.12.2021 02:24 11,5 C 10,6 C 9,4 C 96 % 1012,3 hPa 0,0 l/m 0 min 0 min 0 W/m 12,9 km/h (3 Bft) 95,74 %
30.12.2021 02:26 11,5 C 10,6 C 9,4 C 96 % 1012,4 hPa 0,0 l/m 0 min 0 min 0 W/m 12,9 km/h (3 Bft) 95,74 %
30.12.2021 02:28 11,5 C 10,6 C 9,4 C 96 % 1012,4 hPa 0,0 l/m 0 min 0 min 0 W/m 6,4 km/h (2 Bft) 93,62 %
30.12.2021 02:30 11,5 C 10,6 C 9,4 C 96 % 1012,5 hPa 0,0 l/m 0 min 0 min 0 W/m 16,1 km/h (3 Bft) 97,87 %
30.12.2021 02:32 11,5 C 10,6 C 9,4 C 96 % 1012,4 hPa 0,0 l/m 0 min 0 min 0 W/m 16,1 km/h (3 Bft) 95,65 %
30.12.2021 02:34 11,5 C 10,6 C 9,4 C 96 % 1012,5 hPa 0,0 l/m 0 min 0 min 0 W/m 12,9 km/h (3 Bft) 95,74 %
30.12.2021 02:36 11,5 C 10,6 C 9,4 C 96 % 1012,5 hPa 0,0 l/m 0 min 0 min 0 W/m 9,7 km/h (2 Bft) 95,74 %
30.12.2021 02:38 11,5 C 10,6 C 9,4 C 96 % 1012,5 hPa 0,0 l/m 0 min 0 min 0 W/m 9,7 km/h (2 Bft) 93,62 %
30.12.2021 02:40 11,5 C 10,6 C 9,4 C 96 % 1012,6 hPa 0,0 l/m 0 min 0 min 0 W/m 9,7 km/h (2 Bft) 95,74 %
30.12.2021 02:42 11,5 C 10,6 C 9,4 C 96 % 1012,6 hPa 0,0 l/m 0 min 0 min 0 W/m 16,1 km/h (3 Bft) 93,62 %
30.12.2021 02:44 11,5 C 10,6 C 9,4 C 96 % 1012,5 hPa 0,0 l/m 0 min 0 min 0 W/m 6,4 km/h (2 Bft) 95,65 %
30.12.2021 02:46 11,5 C 10,6 C 9,4 C 96 % 1012,5 hPa 0,0 l/m 0 min 0 min 0 W/m 16,1 km/h (3 Bft) 93,62 %
30.12.2021 02:48 11,5 C 10,6 C 9,4 C 96 % 1012,6 hPa 0,0 l/m 0 min 0 min 0 W/m 16,1 km/h (3 Bft) 95,74 %
30.12.2021 02:50 11,6 C 10,6 C 9,4 C 96 % 1012,5 hPa 0,0 l/m 0 min 0 min 0 W/m 12,9 km/h (3 Bft) 93,62 %
30.12.2021 02:52 11,6 C 10,6 C 9,4 C 96 % 1012,5 hPa 0,0 l/m 0 min 0 min 0 W/m 16,1 km/h (3 Bft) 91,49 %
30.12.2021 02:54 11,6 C 10,6 C 9,4 C 97 % 1012,5 hPa 0,0 l/m 0 min 0 min 0 W/m 16,1 km/h (3 Bft) 95,74 %
30.12.2021 02:56 11,6 C 10,6 C 9,4 C 97 % 1012,5 hPa 0,0 l/m 0 min 0 min 0 W/m 16,1 km/h (3 Bft) 95,65 %
30.12.2021 02:58 11,6 C 11,1 C 9,4 C 97 % 1012,5 hPa 0,0 l/m 0 min 0 min 0 W/m 12,9 km/h (3 Bft) 95,74 %
30.12.2021 03:00 11,6 C 11,1 C 9,4 C 97 % 1012,6 hPa 0,0 l/m 0 min 0 min 0 W/m 12,9 km/h (3 Bft) 91,49 %
30.12.2021 03:02 11,6 C 10,6 C 9,4 C 97 % 1012,5 hPa 0,0 l/m 0 min 0 min 0 W/m 12,9 km/h (3 Bft) 95,74 %
30.12.2021 03:04 11,6 C 10,6 C 9,4 C 97 % 1012,5 hPa 0,0 l/m 0 min 0 min 0 W/m 12,9 km/h (3 Bft) 95,74 %
30.12.2021 03:06 11,6 C 11,1 C 9,4 C 97 % 1012,5 hPa 0,0 l/m 0 min 0 min 0 W/m 12,9 km/h (3 Bft) 97,87 %
30.12.2021 03:08 11,6 C 11,1 C 9,4 C 97 % 1012,5 hPa 0,0 l/m 0 min 0 min 0 W/m 9,7 km/h (2 Bft) 91,30 %
30.12.2021 03:10 11,6 C 11,1 C 10,0 C 97 % 1012,5 hPa 0,0 l/m 0 min 0 min 0 W/m 19,3 km/h (3 Bft) 97,87 %
30.12.2021 03:12 11,6 C 11,1 C 10,0 C 97 % 1012,5 hPa 0,0 l/m 0 min 0 min 0 W/m 19,3 km/h (3 Bft) 97,87 %
30.12.2021 03:14 11,7 C 11,1 C 10,0 C 97 % 1012,5 hPa 0,0 l/m 0 min 0 min 0 W/m 19,3 km/h (3 Bft) 97,87 %
30.12.2021 03:16 11,7 C 11,1 C 10,0 C 97 % 1012,4 hPa 0,0 l/m 0 min 0 min 0 W/m 16,1 km/h (3 Bft) 97,87 %
30.12.2021 03:18 11,7 C 11,1 C 10,0 C 97 % 1012,5 hPa 0,0 l/m 0 min 0 min 0 W/m 12,9 km/h (3 Bft) 97,87 %
30.12.2021 03:20 11,7 C 11,1 C 10,0 C 97 % 1012,5 hPa 0,0 l/m 0 min 0 min 0 W/m 9,7 km/h (2 Bft) 97,83 %
30.12.2021 03:22 11,7 C 11,1 C 10,0 C 97 % 1012,5 hPa 0,0 l/m 0 min 0 min 0 W/m 12,9 km/h (3 Bft) 95,74 %
30.12.2021 03:24 11,8 C 11,1 C 10,0 C 97 % 1012,5 hPa 0,0 l/m 0 min 0 min 0 W/m 19,3 km/h (3 Bft) 95,74 %
30.12.2021 03:26 11,8 C 11,1 C 10,0 C 97 % 1012,4 hPa 0,0 l/m 0 min 0 min 0 W/m 19,3 km/h (3 Bft) 95,74 %
30.12.2021 03:28 11,8 C 11,1 C 10,0 C 97 % 1012,3 hPa 0,0 l/m 0 min 0 min 0 W/m 22,5 km/h (4 Bft) 97,87 %
30.12.2021 03:30 11,8 C 11,1 C 10,0 C 97 % 1012,3 hPa 0,0 l/m 0 min 0 min 0 W/m 12,9 km/h (3 Bft) 100,00 %
30.12.2021 03:32 11,8 C 11,1 C 10,0 C 97 % 1012,4 hPa 0,0 l/m 0 min 0 min 0 W/m 9,7 km/h (2 Bft) 100,00 %
30.12.2021 03:34 11,8 C 11,1 C 10,0 C 97 % 1012,4 hPa 0,0 l/m 0 min 0 min 0 W/m 16,1 km/h (3 Bft) 100,00 %
30.12.2021 03:36 11,8 C 11,1 C 10,0 C 97 % 1012,4 hPa 0,0 l/m 0 min 0 min 0 W/m 16,1 km/h (3 Bft) 100,00 %
30.12.2021 03:38 11,8 C 11,1 C 10,0 C 97 % 1012,4 hPa 0,0 l/m 0 min 0 min 0 W/m 12,9 km/h (3 Bft) 97,87 %
30.12.2021 03:40 11,9 C 11,1 C 10,0 C 97 % 1012,5 hPa 0,0 l/m 0 min 0 min 0 W/m 12,9 km/h (3 Bft) 100,00 %
30.12.2021 03:42 11,9 C 11,1 C 10,0 C 97 % 1012,5 hPa 0,0 l/m 0 min 0 min 0 W/m 25,7 km/h (4 Bft) 100,00 %
30.12.2021 03:44 11,9 C 11,1 C 10,0 C 97 % 1012,5 hPa 0,0 l/m 0 min 0 min 0 W/m 6,4 km/h (2 Bft) 97,83 %
30.12.2021 03:46 11,9 C 11,1 C 10,0 C 97 % 1012,5 hPa 0,0 l/m 0 min 0 min 0 W/m 16,1 km/h (3 Bft) 100,00 %
30.12.2021 03:48 11,9 C 11,1 C 10,0 C 97 % 1012,6 hPa 0,0 l/m 0 min 0 min 0 W/m 9,7 km/h (2 Bft) 100,00 %
30.12.2021 03:50 11,9 C 11,1 C 10,0 C 97 % 1012,5 hPa 0,0 l/m 0 min 0 min 0 W/m 12,9 km/h (3 Bft) 100,00 %
30.12.2021 03:52 11,9 C 11,1 C 10,0 C 97 % 1012,4 hPa 0,0 l/m 0 min 0 min 0 W/m 12,9 km/h (3 Bft) 100,00 %
30.12.2021 03:54 12,0 C 11,1 C 10,0 C 97 % 1012,6 hPa 0,0 l/m 0 min 0 min 0 W/m 16,1 km/h (3 Bft) 100,00 %
30.12.2021 03:56 12,1 C 11,1 C 10,6 C 98 % 1012,5 hPa 0,0 l/m 0 min 0 min 0 W/m 12,9 km/h (3 Bft) 97,87 %
30.12.2021 03:58 12,1 C 11,7 C 10,6 C 98 % 1012,5 hPa 0,0 l/m 0 min 0 min 0 W/m 16,1 km/h (3 Bft) 97,87 %
30.12.2021 04:00 12,1 C 11,7 C 10,6 C 98 % 1012,6 hPa 0,0 l/m 0 min 0 min 0 W/m 19,3 km/h (3 Bft) 97,87 %
30.12.2021 04:05 12,2 C 11,7 C 10,6 C 98 % 1012,7 hPa 0,0 l/m 0 min 0 min 0 W/m 22,5 km/h (4 Bft) 98,44 %
30.12.2021 04:06 12,2 C 11,7 C 10,6 C 98 % 1012,7 hPa 0,0 l/m 0 min 0 min 0 W/m 6,4 km/h (2 Bft) 100,00 %
30.12.2021 04:08 12,2 C 11,7 C 10,6 C 98 % 1012,8 hPa 0,0 l/m 0 min 0 min 0 W/m 12,9 km/h (3 Bft) 100,00 %
30.12.2021 04:10 12,2 C 11,7 C 10,6 C 98 % 1012,8 hPa 0,0 l/m 0 min 0 min 0 W/m 12,9 km/h (3 Bft) 100,00 %
30.12.2021 04:12 12,2 C 11,7 C 10,6 C 98 % 1012,8 hPa 0,0 l/m 0 min 0 min 0 W/m 12,9 km/h (3 Bft) 97,87 %
30.12.2021 04:14 12,2 C 11,7 C 10,6 C 98 % 1012,9 hPa 0,0 l/m 0 min 0 min 0 W/m 6,4 km/h (2 Bft) 100,00 %
30.12.2021 04:16 12,2 C 11,7 C 10,6 C 98 % 1012,9 hPa 0,0 l/m 0 min 0 min 0 W/m 9,7 km/h (2 Bft) 100,00 %
30.12.2021 04:18 12,2 C 11,7 C 10,6 C 98 % 1012,8 hPa 0,0 l/m 0 min 0 min 0 W/m 12,9 km/h (3 Bft) 100,00 %
30.12.2021 04:20 12,3 C 11,7 C 10,6 C 98 % 1012,8 hPa 0,0 l/m 0 min 0 min 0 W/m 12,9 km/h (3 Bft) 95,74 %
30.12.2021 04:22 12,3 C 11,7 C 10,6 C 98 % 1012,8 hPa 0,0 l/m 0 min 0 min 0 W/m 9,7 km/h (2 Bft) 100,00 %
30.12.2021 04:24 12,3 C 11,7 C 10,6 C 98 % 1012,8 hPa 0,0 l/m 0 min 0 min 0 W/m 12,9 km/h (3 Bft) 97,87 %
30.12.2021 04:26 12,3 C 11,7 C 10,6 C 98 % 1012,7 hPa 0,0 l/m 0 min 0 min 0 W/m 12,9 km/h (3 Bft) 97,87 %
30.12.2021 04:28 12,3 C 11,7 C 10,6 C 98 % 1012,7 hPa 0,0 l/m 0 min 0 min 0 W/m 25,7 km/h (4 Bft) 100,00 %
30.12.2021 04:30 12,3 C 11,7 C 10,6 C 98 % 1012,8 hPa 0,0 l/m 0 min 0 min 0 W/m 16,1 km/h (3 Bft) 97,83 %
30.12.2021 04:32 12,3 C 11,7 C 10,6 C 98 % 1012,7 hPa 0,0 l/m 0 min 0 min 0 W/m 16,1 km/h (3 Bft) 95,74 %
30.12.2021 04:34 12,3 C 11,7 C 10,6 C 98 % 1012,8 hPa 0,0 l/m 0 min 0 min 0 W/m 16,1 km/h (3 Bft) 97,87 %
30.12.2021 04:36 12,3 C 11,7 C 10,6 C 98 % 1012,8 hPa 0,0 l/m 0 min 0 min 0 W/m 9,7 km/h (2 Bft) 97,87 %
30.12.2021 04:38 12,3 C 11,7 C 10,6 C 98 % 1012,8 hPa 0,0 l/m 0 min 0 min 0 W/m 12,9 km/h (3 Bft) 95,74 %
30.12.2021 04:40 12,3 C 11,7 C 10,6 C 98 % 1012,8 hPa 0,0 l/m 0 min 0 min 0 W/m 19,3 km/h (3 Bft) 97,87 %
30.12.2021 04:42 12,4 C 11,7 C 10,6 C 98 % 1012,7 hPa 0,0 l/m 0 min 0 min 0 W/m 19,3 km/h (3 Bft) 97,83 %
30.12.2021 04:44 12,3 C 11,7 C 10,6 C 98 % 1012,8 hPa 0,0 l/m 0 min 0 min 0 W/m 19,3 km/h (3 Bft) 97,87 %
30.12.2021 04:46 12,3 C 11,7 C 10,6 C 98 % 1012,8 hPa 0,0 l/m 0 min 0 min 0 W/m 16,1 km/h (3 Bft) 97,87 %
30.12.2021 04:48 12,4 C 11,7 C 10,6 C 98 % 1012,7 hPa 0,0 l/m 0 min 0 min 0 W/m 12,9 km/h (3 Bft) 97,87 %
30.12.2021 04:50 12,4 C 11,7 C 10,6 C 98 % 1012,8 hPa 0,0 l/m 0 min 0 min 0 W/m 16,1 km/h (3 Bft) 97,87 %
30.12.2021 04:52 12,4 C 11,7 C 10,6 C 98 % 1012,8 hPa 0,0 l/m 0 min 2 min 0 W/m 16,1 km/h (3 Bft) 97,87 %
30.12.2021 04:54 12,3 C 11,7 C 10,6 C 98 % 1012,8 hPa 0,0 l/m 0 min 2 min 0 W/m 16,1 km/h (3 Bft) 95,65 %
30.12.2021 04:56 12,3 C 11,7 C 10,6 C 99 % 1012,8 hPa 0,0 l/m 0 min 0 min 0 W/m 12,9 km/h (3 Bft) 95,74 %
30.12.2021 04:58 12,3 C 11,7 C 10,6 C 99 % 1012,9 hPa 0,0 l/m 0 min 2 min 0 W/m 12,9 km/h (3 Bft) 95,74 %
30.12.2021 05:00 12,3 C 11,7 C 10,6 C 99 % 1012,9 hPa 0,0 l/m 0 min 2 min 0 W/m 22,5 km/h (4 Bft) 93,62 %
30.12.2021 05:02 12,3 C 11,7 C 10,6 C 99 % 1013,0 hPa 0,2 l/m 0 min 2 min 0 W/m 16,1 km/h (3 Bft) 95,74 %
30.12.2021 05:04 12,3 C 11,7 C 10,6 C 99 % 1013,0 hPa 0,2 l/m 0 min 2 min 0 W/m 16,1 km/h (3 Bft) 97,87 %
30.12.2021 05:06 12,3 C 11,7 C 10,6 C 99 % 1013,0 hPa 0,2 l/m 0 min 2 min 0 W/m 16,1 km/h (3 Bft) 95,65 %
30.12.2021 05:08 12,4 C 11,7 C 10,6 C 99 % 1013,0 hPa 0,0 l/m 0 min 2 min 0 W/m 12,9 km/h (3 Bft) 97,87 %
30.12.2021 05:10 12,4 C 11,7 C 10,6 C 99 % 1012,9 hPa 0,0 l/m 0 min 2 min 0 W/m 3,2 km/h (1 Bft) 97,87 %
30.12.2021 05:12 12,3 C 11,7 C 10,6 C 99 % 1012,9 hPa 0,0 l/m 0 min 0 min 0 W/m 9,7 km/h (2 Bft) 98,00 %
30.12.2021 05:14 12,3 C 11,1 C 10,6 C 99 % 1012,9 hPa 0,0 l/m 0 min 0 min 0 W/m 3,2 km/h (1 Bft) 93,75 %
30.12.2021 05:16 12,3 C 11,1 C 10,6 C 99 % 1012,8 hPa 0,2 l/m 0 min 0 min 0 W/m 6,4 km/h (2 Bft) 95,74 %
30.12.2021 05:18 12,3 C 11,1 C 10,6 C 99 % 1012,9 hPa 0,0 l/m 0 min 0 min 0 W/m 3,2 km/h (1 Bft) 97,87 %
30.12.2021 05:20 12,3 C 11,1 C 10,6 C 99 % 1012,8 hPa 0,0 l/m 0 min 0 min 0 W/m 9,7 km/h (2 Bft) 97,87 %
30.12.2021 05:22 12,3 C 11,1 C 10,6 C 99 % 1012,8 hPa 0,0 l/m 0 min 0 min 0 W/m 9,7 km/h (2 Bft) 95,74 %
30.12.2021 05:24 12,3 C 11,1 C 10,6 C 99 % 1012,8 hPa 0,0 l/m 0 min 0 min 0 W/m 6,4 km/h (2 Bft) 97,83 %
30.12.2021 05:26 12,3 C 11,7 C 10,6 C 99 % 1012,8 hPa 0,0 l/m 0 min 2 min 0 W/m 3,2 km/h (1 Bft) 95,74 %
30.12.2021 05:28 12,3 C 11,7 C 10,6 C 99 % 1012,9 hPa 0,0 l/m 0 min 0 min 0 W/m 6,4 km/h (2 Bft) 95,74 %
30.12.2021 05:30 12,3 C 11,7 C 10,6 C 99 % 1012,9 hPa 0,0 l/m 0 min 0 min 0 W/m 12,9 km/h (3 Bft) 95,74 %
30.12.2021 05:32 12,4 C 11,7 C 10,6 C 99 % 1012,9 hPa 0,0 l/m 0 min 0 min 0 W/m 12,9 km/h (3 Bft) 95,74 %
30.12.2021 05:34 12,4 C 11,7 C 10,6 C 99 % 1012,8 hPa 0,0 l/m 0 min 0 min 0 W/m 19,3 km/h (3 Bft) 93,62 %
30.12.2021 05:36 12,4 C 11,7 C 11,1 C 99 % 1012,9 hPa 0,0 l/m 0 min 0 min 0 W/m 19,3 km/h (3 Bft) 93,48 %
30.12.2021 05:38 12,4 C 11,7 C 11,1 C 99 % 1012,8 hPa 0,0 l/m 0 min 0 min 0 W/m 25,7 km/h (4 Bft) 95,74 %
30.12.2021 05:40 12,4 C 11,7 C 11,1 C 99 % 1012,9 hPa 0,0 l/m 0 min 0 min 0 W/m 16,1 km/h (3 Bft) 95,74 %
30.12.2021 05:42 12,5 C 11,7 C 11,1 C 99 % 1012,9 hPa 0,0 l/m 0 min 0 min 0 W/m 16,1 km/h (3 Bft) 97,87 %
30.12.2021 05:44 12,5 C 11,7 C 11,1 C 99 % 1012,9 hPa 0,0 l/m 0 min 0 min 0 W/m 9,7 km/h (2 Bft) 97,87 %
30.12.2021 05:46 12,5 C 11,7 C 11,1 C 99 % 1012,8 hPa 0,0 l/m 0 min 0 min 0 W/m 16,1 km/h (3 Bft) 97,87 %
30.12.2021 05:48 12,5 C 11,7 C 11,1 C 99 % 1012,8 hPa 0,2 l/m 0 min 0 min 0 W/m 19,3 km/h (3 Bft) 97,83 %
30.12.2021 05:50 12,6 C 11,7 C 11,1 C 99 % 1012,9 hPa 0,0 l/m 0 min 0 min 0 W/m 22,5 km/h (4 Bft) 95,74 %
30.12.2021 05:52 12,6 C 11,7 C 11,1 C 99 % 1012,8 hPa 0,0 l/m 0 min 0 min 0 W/m 25,7 km/h (4 Bft) 95,74 %
30.12.2021 05:54 12,6 C 11,7 C 11,1 C 99 % 1012,8 hPa 0,0 l/m 0 min 0 min 0 W/m 25,7 km/h (4 Bft) 97,87 %
30.12.2021 05:56 12,7 C 11,7 C 11,1 C 100 % 1012,9 hPa 0,0 l/m 0 min 0 min 0 W/m 16,1 km/h (3 Bft) 97,87 %
30.12.2021 05:58 12,6 C 11,7 C 11,1 C 99 % 1012,9 hPa 0,0 l/m 0 min 0 min 0 W/m 16,1 km/h (3 Bft) 95,74 %
30.12.2021 06:00 12,7 C 11,7 C 11,1 C 100 % 1013,0 hPa 0,0 l/m 0 min 0 min 0 W/m 16,1 km/h (3 Bft) 97,83 %
30.12.2021 06:02 12,7 C 11,7 C 11,1 C 99 % 1013,0 hPa 0,0 l/m 0 min 0 min 0 W/m 9,7 km/h (2 Bft) 97,87 %
30.12.2021 06:04 12,7 C 11,7 C 11,1 C 99 % 1013,0 hPa 0,0 l/m 0 min 0 min 0 W/m 12,9 km/h (3 Bft) 97,87 %
30.12.2021 06:08 12,7 C 11,7 C 11,1 C 100 % 1013,0 hPa 0,0 l/m 0 min 0 min 0 W/m 16,1 km/h (3 Bft) 97,87 %
30.12.2021 06:10 12,7 C 11,7 C 11,1 C 100 % 1013,0 hPa 0,0 l/m 0 min 0 min 0 W/m 16,1 km/h (3 Bft) 97,87 %
30.12.2021 06:12 12,7 C 12,2 C 11,1 C 100 % 1013,1 hPa 0,0 l/m 0 min 0 min 0 W/m 16,1 km/h (3 Bft) 97,83 %
30.12.2021 06:14 12,7 C 12,2 C 11,1 C 100 % 1013,0 hPa 0,0 l/m 0 min 0 min 0 W/m 12,9 km/h (3 Bft) 100,00 %
30.12.2021 06:16 12,8 C 12,2 C 11,1 C 100 % 1013,1 hPa 0,0 l/m 0 min 0 min 0 W/m 16,1 km/h (3 Bft) 97,87 %
30.12.2021 06:18 12,8 C 12,2 C 11,1 C 100 % 1013,0 hPa 0,0 l/m 0 min 0 min 0 W/m 19,3 km/h (3 Bft) 100,00 %
30.12.2021 06:20 12,8 C 12,2 C 11,1 C 100 % 1013,0 hPa 0,0 l/m 0 min 0 min 0 W/m 16,1 km/h (3 Bft) 100,00 %
30.12.2021 06:22 12,8 C 12,2 C 11,1 C 100 % 1013,0 hPa 0,0 l/m 0 min 0 min 0 W/m 19,3 km/h (3 Bft) 100,00 %
30.12.2021 06:24 12,9 C 12,2 C 11,1 C 100 % 1013,0 hPa 0,0 l/m 0 min 0 min 0 W/m 25,7 km/h (4 Bft) 95,74 %
30.12.2021 06:26 12,9 C 12,2 C 11,7 C 100 % 1013,0 hPa 0,0 l/m 0 min 0 min 0 W/m 16,1 km/h (3 Bft) 97,87 %
30.12.2021 06:28 12,9 C 12,2 C 11,7 C 100 % 1013,0 hPa 0,0 l/m 0 min 0 min 0 W/m 25,7 km/h (4 Bft) 100,00 %
30.12.2021 06:30 12,9 C 12,2 C 11,7 C 100 % 1013,0 hPa 0,0 l/m 0 min 0 min 0 W/m 29,0 km/h (5 Bft) 100,00 %
30.12.2021 06:32 13,0 C 12,2 C 11,7 C 100 % 1013,0 hPa 0,0 l/m 0 min 0 min 0 W/m 19,3 km/h (3 Bft) 97,87 %
30.12.2021 06:34 13,1 C 12,2 C 11,7 C 100 % 1013,0 hPa 0,0 l/m 0 min 0 min 0 W/m 25,7 km/h (4 Bft) 97,83 %
30.12.2021 06:36 13,1 C 12,2 C 11,7 C 100 % 1013,0 hPa 0,0 l/m 0 min 0 min 0 W/m 25,7 km/h (4 Bft) 97,87 %
30.12.2021 06:38 13,0 C 12,2 C 11,7 C 100 % 1013,0 hPa 0,0 l/m 0 min 0 min 0 W/m 19,3 km/h (3 Bft) 97,87 %
30.12.2021 06:40 13,1 C 12,2 C 11,7 C 100 % 1013,0 hPa 0,0 l/m 0 min 0 min 0 W/m 12,9 km/h (3 Bft) 93,62 %
30.12.2021 06:42 13,1 C 12,2 C 11,7 C 100 % 1013,0 hPa 0,0 l/m 0 min 0 min 0 W/m 12,9 km/h (3 Bft) 97,87 %
30.12.2021 06:44 13,1 C 12,2 C 11,7 C 100 % 1013,0 hPa 0,0 l/m 0 min 0 min 0 W/m 12,9 km/h (3 Bft) 97,87 %
30.12.2021 06:46 13,1 C 12,2 C 11,7 C 100 % 1012,9 hPa 0,0 l/m 0 min 0 min 0 W/m 19,3 km/h (3 Bft) 95,65 %
30.12.2021 06:48 13,1 C 12,2 C 11,7 C 100 % 1013,0 hPa 0,0 l/m 0 min 0 min 0 W/m 16,1 km/h (3 Bft) 97,87 %
30.12.2021 06:50 13,1 C 12,2 C 11,7 C 100 % 1013,0 hPa 0,0 l/m 0 min 0 min 0 W/m 19,3 km/h (3 Bft) 97,87 %
30.12.2021 06:52 13,1 C 12,2 C 11,7 C 100 % 1013,1 hPa 0,0 l/m 0 min 0 min 0 W/m 22,5 km/h (4 Bft) 95,74 %
30.12.2021 06:54 13,1 C 12,2 C 11,7 C 100 % 1013,1 hPa 0,0 l/m 0 min 0 min 0 W/m 32,2 km/h (5 Bft) 97,87 %
30.12.2021 06:56 13,2 C 12,2 C 11,7 C 100 % 1013,1 hPa 0,0 l/m 0 min 0 min 0 W/m 19,3 km/h (3 Bft) 97,87 %
30.12.2021 06:58 13,2 C 12,2 C 11,7 C 100 % 1013,1 hPa 0,0 l/m 0 min 0 min 0 W/m 19,3 km/h (3 Bft) 95,74 %
30.12.2021 07:00 13,2 C 12,8 C 11,7 C 100 % 1013,1 hPa 0,0 l/m 0 min 0 min 0 W/m 22,5 km/h (4 Bft) 95,65 %
30.12.2021 07:02 13,2 C 12,8 C 11,7 C 100 % 1013,1 hPa 0,0 l/m 0 min 0 min 0 W/m 16,1 km/h (3 Bft) 97,87 %
30.12.2021 07:04 13,2 C 12,8 C 11,7 C 100 % 1013,2 hPa 0,0 l/m 0 min 0 min 0 W/m 19,3 km/h (3 Bft) 100,00 %
30.12.2021 07:06 13,2 C 12,8 C 11,7 C 100 % 1013,2 hPa 0,0 l/m 0 min 0 min 0 W/m 16,1 km/h (3 Bft) 100,00 %
30.12.2021 07:08 13,2 C 12,8 C 11,7 C 100 % 1013,3 hPa 0,0 l/m 0 min 0 min 0 W/m 22,5 km/h (4 Bft) 100,00 %
30.12.2021 07:10 13,3 C 12,8 C 11,7 C 100 % 1013,3 hPa 0,0 l/m 0 min 0 min 0 W/m 16,1 km/h (3 Bft) 100,00 %
30.12.2021 07:12 13,3 C 12,8 C 11,7 C 100 % 1013,3 hPa 0,0 l/m 0 min 0 min 0 W/m 19,3 km/h (3 Bft) 100,00 %
30.12.2021 07:14 13,3 C 12,8 C 11,7 C 100 % 1013,3 hPa 0,0 l/m 0 min 0 min 0 W/m 19,3 km/h (3 Bft) 100,00 %
30.12.2021 07:16 13,3 C 12,8 C 11,7 C 100 % 1013,3 hPa 0,0 l/m 0 min 0 min 0 W/m 25,7 km/h (4 Bft) 100,00 %
30.12.2021 07:18 13,3 C 12,8 C 11,7 C 100 % 1013,4 hPa 0,0 l/m 0 min 0 min 0 W/m 16,1 km/h (3 Bft) 100,00 %
30.12.2021 07:20 13,3 C 12,8 C 11,7 C 100 % 1013,4 hPa 0,0 l/m 0 min 0 min 0 W/m 19,3 km/h (3 Bft) 100,00 %
30.12.2021 07:22 13,3 C 12,8 C 11,7 C 100 % 1013,5 hPa 0,0 l/m 0 min 0 min 0 W/m 19,3 km/h (3 Bft) 97,83 %
30.12.2021 07:24 13,3 C 12,8 C 11,7 C 100 % 1013,4 hPa 0,0 l/m 0 min 0 min 0 W/m 19,3 km/h (3 Bft) 97,87 %
30.12.2021 07:26 13,3 C 12,8 C 11,7 C 100 % 1013,4 hPa 0,0 l/m 0 min 0 min 0 W/m 22,5 km/h (4 Bft) 97,87 %
30.12.2021 07:28 13,4 C 12,8 C 11,7 C 100 % 1013,4 hPa 0,0 l/m 0 min 0 min 0 W/m 35,4 km/h (5 Bft) 100,00 %
30.12.2021 07:30 13,4 C 12,8 C 12,2 C 100 % 1013,5 hPa 0,0 l/m 0 min 0 min 0 W/m 22,5 km/h (4 Bft) 100,00 %
30.12.2021 07:32 13,4 C 12,8 C 11,7 C 100 % 1013,6 hPa 0,0 l/m 0 min 0 min 0 W/m 16,1 km/h (3 Bft) 100,00 %
30.12.2021 07:34 13,4 C 12,8 C 11,7 C 100 % 1013,5 hPa 0,0 l/m 0 min 0 min 0 W/m 22,5 km/h (4 Bft) 100,00 %
30.12.2021 07:36 13,4 C 12,8 C 11,7 C 100 % 1013,5 hPa 0,0 l/m 0 min 0 min 0 W/m 19,3 km/h (3 Bft) 100,00 %
30.12.2021 07:38 13,4 C 12,8 C 11,7 C 100 % 1013,5 hPa 0,0 l/m 0 min 0 min 0 W/m 29,0 km/h (5 Bft) 100,00 %
30.12.2021 07:40 13,5 C 12,8 C 11,7 C 100 % 1013,5 hPa 0,0 l/m 0 min 0 min 0 W/m 19,3 km/h (3 Bft) 100,00 %
30.12.2021 07:42 13,5 C 12,8 C 12,2 C 100 % 1013,5 hPa 0,0 l/m 0 min 0 min 0 W/m 29,0 km/h (5 Bft) 97,87 %
30.12.2021 07:44 13,6 C 12,8 C 12,2 C 100 % 1013,5 hPa 0,0 l/m 0 min 0 min 0 W/m 25,7 km/h (4 Bft) 97,87 %
30.12.2021 07:46 13,6 C 12,8 C 11,7 C 100 % 1013,5 hPa 0,0 l/m 0 min 0 min 0 W/m 16,1 km/h (3 Bft) 95,65 %
30.12.2021 07:48 13,6 C 12,8 C 11,7 C 100 % 1013,5 hPa 0,0 l/m 0 min 0 min 0 W/m 22,5 km/h (4 Bft) 97,87 %
30.12.2021 07:50 13,6 C 12,8 C 11,7 C 100 % 1013,6 hPa 0,0 l/m 0 min 0 min 0 W/m 35,4 km/h (5 Bft) 95,74 %
30.12.2021 07:52 13,6 C 12,8 C 11,7 C 99 % 1013,5 hPa 0,0 l/m 0 min 0 min 0 W/m 19,3 km/h (3 Bft) 95,74 %
30.12.2021 07:54 13,6 C 12,8 C 12,2 C 99 % 1013,5 hPa 0,0 l/m 0 min 0 min 0 W/m 32,2 km/h (5 Bft) 97,87 %
30.12.2021 07:56 13,6 C 12,8 C 12,2 C 99 % 1013,5 hPa 0,0 l/m 0 min 0 min 0 W/m 16,1 km/h (3 Bft) 97,87 %
30.12.2021 07:58 13,6 C 12,8 C 12,2 C 99 % 1013,5 hPa 0,0 l/m 0 min 0 min 0 W/m 19,3 km/h (3 Bft) 95,65 %
30.12.2021 08:00 13,6 C 12,8 C 11,7 C 99 % 1013,4 hPa 0,0 l/m 0 min 0 min 0 W/m 19,3 km/h (3 Bft) 95,74 %
30.12.2021 08:02 13,6 C 12,8 C 12,2 C 99 % 1013,5 hPa 0,0 l/m 0 min 0 min 0 W/m 22,5 km/h (4 Bft) 97,87 %
30.12.2021 08:04 13,6 C 12,8 C 12,2 C 99 % 1013,5 hPa 0,0 l/m 0 min 0 min 0 W/m 16,1 km/h (3 Bft) 97,87 %
30.12.2021 08:06 13,6 C 12,8 C 12,2 C 99 % 1013,5 hPa 0,0 l/m 0 min 0 min 0 W/m 19,3 km/h (3 Bft) 97,87 %
30.12.2021 08:08 13,6 C 12,8 C 12,2 C 99 % 1013,6 hPa 0,0 l/m 0 min 0 min 0 W/m 16,1 km/h (3 Bft) 95,74 %
30.12.2021 08:10 13,6 C 12,8 C 11,7 C 99 % 1013,7 hPa 0,0 l/m 0 min 0 min 0 W/m 19,3 km/h (3 Bft) 93,48 %
30.12.2021 08:12 13,6 C 12,8 C 12,2 C 99 % 1013,7 hPa 0,0 l/m 0 min 0 min 0 W/m 29,0 km/h (5 Bft) 95,74 %
30.12.2021 08:14 13,6 C 12,8 C 12,2 C 99 % 1013,8 hPa 0,0 l/m 0 min 0 min 0 W/m 12,9 km/h (3 Bft) 46,15 %
30.12.2021 08:16 13,6 C 12,8 C 12,2 C 99 % 1013,7 hPa 0,0 l/m 0 min 0 min 0 W/m 19,3 km/h (3 Bft) 95,74 %
30.12.2021 08:18 13,6 C 12,8 C 11,7 C 99 % 1013,8 hPa 0,0 l/m 0 min 0 min 0 W/m 12,9 km/h (3 Bft) 93,62 %
30.12.2021 08:20 13,6 C 12,8 C 11,7 C 99 % 1013,9 hPa 0,0 l/m 0 min 0 min 0 W/m 12,9 km/h (3 Bft) 95,74 %
30.12.2021 08:22 13,6 C 12,8 C 11,7 C 99 % 1013,9 hPa 0,0 l/m 0 min 0 min 0 W/m 16,1 km/h (3 Bft) 95,65 %
30.12.2021 08:24 13,6 C 12,8 C 11,7 C 99 % 1013,9 hPa 0,0 l/m 0 min 0 min 0 W/m 19,3 km/h (3 Bft) 95,74 %
30.12.2021 08:26 13,6 C 12,8 C 12,2 C 99 % 1013,9 hPa 0,0 l/m 0 min 0 min 0 W/m 19,3 km/h (3 Bft) 95,74 %
30.12.2021 08:28 13,6 C 12,8 C 12,2 C 99 % 1014,0 hPa 0,0 l/m 0 min 0 min 0 W/m 12,9 km/h (3 Bft) 91,49 %
30.12.2021 08:30 13,6 C 12,8 C 11,7 C 99 % 1014,1 hPa 0,0 l/m 0 min 0 min 0 W/m 9,7 km/h (2 Bft) 93,62 %
30.12.2021 08:32 13,6 C 12,8 C 12,2 C 99 % 1014,1 hPa 0,0 l/m 0 min 0 min 0 W/m 22,5 km/h (4 Bft) 95,65 %
30.12.2021 08:34 13,6 C 12,8 C 12,2 C 99 % 1014,2 hPa 0,0 l/m 0 min 0 min 0 W/m 16,1 km/h (3 Bft) 95,74 %
30.12.2021 08:36 13,6 C 12,8 C 12,2 C 99 % 1014,3 hPa 0,0 l/m 0 min 0 min 0 W/m 12,9 km/h (3 Bft) 95,74 %
30.12.2021 08:38 13,6 C 12,8 C 12,2 C 99 % 1014,3 hPa 0,0 l/m 0 min 0 min 0 W/m 16,1 km/h (3 Bft) 93,62 %
30.12.2021 08:40 13,6 C 12,8 C 11,7 C 99 % 1014,4 hPa 0,0 l/m 0 min 0 min 0 W/m 12,9 km/h (3 Bft) 91,49 %
30.12.2021 08:42 13,6 C 12,8 C 12,2 C 99 % 1014,4 hPa 0,0 l/m 0 min 0 min 0 W/m 12,9 km/h (3 Bft) 95,74 %
30.12.2021 08:43 13,6 C 12,8 C 11,7 C 99 % 1014,4 hPa 0,0 l/m 0 min 0 min 0 W/m 16,1 km/h (3 Bft) 95,65 %
30.12.2021 08:46 13,6 C 12,8 C 12,2 C 99 % 1014,4 hPa 0,0 l/m 0 min 0 min 0 W/m 22,5 km/h (4 Bft) 95,74 %
30.12.2021 08:48 13,6 C 12,8 C 11,7 C 99 % 1014,5 hPa 0,0 l/m 0 min 0 min 0 W/m 16,1 km/h (3 Bft) 91,49 %
30.12.2021 08:50 13,6 C 12,8 C 12,2 C 99 % 1014,6 hPa 0,0 l/m 0 min 0 min 0 W/m 19,3 km/h (3 Bft) 95,74 %
30.12.2021 08:52 13,6 C 12,8 C 12,2 C 99 % 1014,6 hPa 0,0 l/m 0 min 0 min 0 W/m 12,9 km/h (3 Bft) 97,87 %
30.12.2021 08:54 13,6 C 12,8 C 12,2 C 99 % 1014,6 hPa 0,0 l/m 0 min 0 min 0 W/m 19,3 km/h (3 Bft) 95,74 %
30.12.2021 08:56 13,6 C 12,8 C 12,2 C 99 % 1014,6 hPa 0,0 l/m 0 min 0 min 0 W/m 16,1 km/h (3 Bft) 95,65 %
30.12.2021 08:58 13,6 C 12,8 C 12,2 C 99 % 1014,6 hPa 0,0 l/m 0 min 0 min 0 W/m 16,1 km/h (3 Bft) 95,74 %
30.12.2021 09:00 13,5 C 12,8 C 12,2 C 99 % 1014,7 hPa 0,0 l/m 0 min 0 min 1 W/m 12,9 km/h (3 Bft) 97,87 %
30.12.2021 09:02 13,5 C 12,8 C 12,2 C 99 % 1014,6 hPa 0,0 l/m 0 min 0 min 5 W/m 19,3 km/h (3 Bft) 100,00 %
30.12.2021 09:04 13,5 C 12,8 C 12,2 C 99 % 1014,6 hPa 0,0 l/m 0 min 0 min 6 W/m 12,9 km/h (3 Bft) 100,00 %
30.12.2021 09:06 13,5 C 12,8 C 12,2 C 99 % 1014,6 hPa 0,0 l/m 0 min 0 min 7 W/m 16,1 km/h (3 Bft) 95,74 %
30.12.2021 09:08 13,5 C 12,8 C 12,2 C 99 % 1014,7 hPa 0,0 l/m 0 min 0 min 7 W/m 16,1 km/h (3 Bft) 100,00 %
30.12.2021 09:10 13,5 C 12,8 C 12,2 C 99 % 1014,7 hPa 0,0 l/m 0 min 0 min 7 W/m 19,3 km/h (3 Bft) 100,00 %
30.12.2021 09:12 13,5 C 12,8 C 12,2 C 99 % 1014,7 hPa 0,0 l/m 0 min 0 min 7 W/m 16,1 km/h (3 Bft) 100,00 %
30.12.2021 09:14 13,5 C 12,8 C 12,2 C 99 % 1014,8 hPa 0,0 l/m 0 min 0 min 7 W/m 22,5 km/h (4 Bft) 97,87 %
30.12.2021 09:16 13,5 C 12,8 C 12,2 C 99 % 1014,9 hPa 0,0 l/m 0 min 0 min 7 W/m 12,9 km/h (3 Bft) 100,00 %
30.12.2021 09:18 13,5 C 12,8 C 12,2 C 99 % 1014,9 hPa 0,0 l/m 0 min 0 min 8 W/m 22,5 km/h (4 Bft) 100,00 %
30.12.2021 09:20 13,5 C 12,8 C 12,2 C 99 % 1014,9 hPa 0,0 l/m 0 min 0 min 9 W/m 16,1 km/h (3 Bft) 100,00 %
30.12.2021 09:22 13,5 C 12,8 C 12,2 C 99 % 1014,9 hPa 0,0 l/m 0 min 0 min 9 W/m 12,9 km/h (3 Bft) 100,00 %
30.12.2021 09:24 13,5 C 12,8 C 12,2 C 99 % 1015,0 hPa 0,0 l/m 0 min 0 min 9 W/m 16,1 km/h (3 Bft) 100,00 %
30.12.2021 09:26 13,5 C 12,8 C 12,2 C 99 % 1014,9 hPa 0,0 l/m 0 min 0 min 7 W/m 12,9 km/h (3 Bft) 100,00 %
30.12.2021 09:28 13,4 C 12,8 C 12,2 C 99 % 1015,0 hPa 0,0 l/m 0 min 0 min 6 W/m 12,9 km/h (3 Bft) 100,00 %
30.12.2021 09:30 13,4 C 12,8 C 11,7 C 99 % 1015,0 hPa 0,0 l/m 0 min 0 min 5 W/m 12,9 km/h (3 Bft) 100,00 %
30.12.2021 09:32 13,4 C 12,8 C 12,2 C 99 % 1014,9 hPa 0,0 l/m 0 min 0 min 5 W/m 16,1 km/h (3 Bft) 100,00 %
30.12.2021 09:34 13,4 C 12,8 C 12,2 C 99 % 1014,9 hPa 0,0 l/m 0 min 0 min 6 W/m 19,3 km/h (3 Bft) 100,00 %
30.12.2021 09:36 13,4 C 12,8 C 12,2 C 99 % 1014,9 hPa 0,0 l/m 0 min 0 min 7 W/m 9,7 km/h (2 Bft) 100,00 %
30.12.2021 09:38 13,4 C 12,8 C 11,7 C 99 % 1015,0 hPa 0,0 l/m 0 min 0 min 7 W/m 12,9 km/h (3 Bft) 100,00 %
30.12.2021 09:40 13,4 C 12,8 C 11,7 C 99 % 1015,1 hPa 0,0 l/m 0 min 0 min 7 W/m 6,4 km/h (2 Bft) 100,00 %
30.12.2021 09:42 13,4 C 12,8 C 12,2 C 99 % 1015,1 hPa 0,0 l/m 0 min 0 min 7 W/m 12,9 km/h (3 Bft) 97,87 %
30.12.2021 09:44 13,4 C 12,8 C 12,2 C 99 % 1015,1 hPa 0,0 l/m 0 min 0 min 7 W/m 12,9 km/h (3 Bft) 100,00 %
30.12.2021 09:46 13,4 C 12,8 C 12,2 C 99 % 1015,1 hPa 0,0 l/m 0 min 0 min 7 W/m 12,9 km/h (3 Bft) 100,00 %
30.12.2021 09:48 13,4 C 12,8 C 12,2 C 99 % 1015,2 hPa 0,0 l/m 0 min 0 min 7 W/m 12,9 km/h (3 Bft) 100,00 %
30.12.2021 09:50 13,4 C 12,8 C 12,2 C 99 % 1015,1 hPa 0,0 l/m 0 min 0 min 7 W/m 19,3 km/h (3 Bft) 100,00 %
30.12.2021 09:52 13,4 C 12,8 C 12,2 C 99 % 1015,1 hPa 0,0 l/m 0 min 0 min 8 W/m 9,7 km/h (2 Bft) 100,00 %
30.12.2021 09:54 13,4 C 12,8 C 12,2 C 99 % 1015,2 hPa 0,0 l/m 0 min 0 min 11 W/m 16,1 km/h (3 Bft) 100,00 %
30.12.2021 09:56 13,4 C 12,8 C 12,2 C 99 % 1015,2 hPa 0,0 l/m 0 min 0 min 16 W/m 16,1 km/h (3 Bft) 100,00 %
30.12.2021 09:58 13,4 C 12,8 C 12,2 C 99 % 1015,1 hPa 0,0 l/m 0 min 0 min 28 W/m 12,9 km/h (3 Bft) 100,00 %
30.12.2021 10:00 13,4 C 12,8 C 12,2 C 99 % 1015,1 hPa 0,0 l/m 0 min 0 min 39 W/m 16,1 km/h (3 Bft) 100,00 %
30.12.2021 10:02 13,5 C 12,8 C 12,2 C 99 % 1015,1 hPa 0,0 l/m 0 min 0 min 43 W/m 9,7 km/h (2 Bft) 100,00 %
30.12.2021 10:04 13,5 C 13,3 C 12,2 C 99 % 1015,1 hPa 0,0 l/m 0 min 0 min 43 W/m 19,3 km/h (3 Bft) 100,00 %
30.12.2021 10:06 13,6 C 13,3 C 12,2 C 99 % 1015,2 hPa 0,0 l/m 0 min 0 min 40 W/m 16,1 km/h (3 Bft) 100,00 %
30.12.2021 10:08 13,6 C 13,3 C 12,2 C 99 % 1015,1 hPa 0,0 l/m 0 min 0 min 34 W/m 16,1 km/h (3 Bft) 100,00 %
30.12.2021 10:10 13,6 C 13,3 C 12,2 C 99 % 1015,1 hPa 0,0 l/m 0 min 0 min 35 W/m 12,9 km/h (3 Bft) 95,74 %
30.12.2021 10:12 13,6 C 13,3 C 12,2 C 99 % 1015,1 hPa 0,0 l/m 0 min 0 min 30 W/m 19,3 km/h (3 Bft) 97,87 %
30.12.2021 10:14 13,6 C 13,3 C 12,2 C 99 % 1015,1 hPa 0,0 l/m 0 min 0 min 23 W/m 19,3 km/h (3 Bft) 97,87 %
30.12.2021 10:16 13,7 C 13,3 C 12,2 C 99 % 1015,1 hPa 0,0 l/m 0 min 0 min 21 W/m 19,3 km/h (3 Bft) 100,00 %
30.12.2021 10:18 13,7 C 13,3 C 12,2 C 99 % 1015,1 hPa 0,0 l/m 0 min 0 min 23 W/m 9,7 km/h (2 Bft) 97,87 %
30.12.2021 10:20 13,7 C 13,3 C 12,2 C 99 % 1015,2 hPa 0,0 l/m 0 min 0 min 19 W/m 12,9 km/h (3 Bft) 100,00 %
30.12.2021 10:22 13,7 C 13,3 C 12,2 C 99 % 1015,2 hPa 0,0 l/m 0 min 0 min 19 W/m 16,1 km/h (3 Bft) 97,87 %
30.12.2021 10:24 13,7 C 13,3 C 12,2 C 99 % 1015,3 hPa 0,0 l/m 0 min 0 min 23 W/m 16,1 km/h (3 Bft) 100,00 %
30.12.2021 10:26 13,7 C 13,3 C 12,2 C 99 % 1015,3 hPa 0,0 l/m 0 min 0 min 23 W/m 16,1 km/h (3 Bft) 97,87 %
30.12.2021 10:28 13,7 C 13,3 C 12,2 C 99 % 1015,4 hPa 0,0 l/m 0 min 0 min 25 W/m 12,9 km/h (3 Bft) 95,74 %
30.12.2021 10:30 13,7 C 13,3 C 12,2 C 99 % 1015,5 hPa 0,0 l/m 0 min 0 min 29 W/m 22,5 km/h (4 Bft) 97,83 %
30.12.2021 10:32 13,8 C 13,3 C 12,2 C 99 % 1015,5 hPa 0,0 l/m 0 min 0 min 45 W/m 16,1 km/h (3 Bft) 97,87 %
30.12.2021 10:34 13,8 C 13,3 C 12,2 C 99 % 1015,5 hPa 0,0 l/m 0 min 0 min 42 W/m 16,1 km/h (3 Bft) 95,74 %
30.12.2021 10:36 13,8 C 13,3 C 12,2 C 99 % 1015,5 hPa 0,0 l/m 0 min 0 min 39 W/m 19,3 km/h (3 Bft) 93,62 %
30.12.2021 10:38 13,8 C 13,3 C 12,2 C 99 % 1015,5 hPa 0,0 l/m 0 min 0 min 48 W/m 16,1 km/h (3 Bft) 95,74 %
30.12.2021 10:40 13,8 C 13,3 C 12,2 C 99 % 1015,6 hPa 0,0 l/m 0 min 0 min 45 W/m 16,1 km/h (3 Bft) 95,74 %
30.12.2021 10:42 13,8 C 13,3 C 12,2 C 98 % 1015,5 hPa 0,0 l/m 0 min 0 min 48 W/m 12,9 km/h (3 Bft) 95,65 %
30.12.2021 10:44 13,9 C 13,3 C 12,2 C 98 % 1015,5 hPa 0,0 l/m 0 min 0 min 44 W/m 25,7 km/h (4 Bft) 95,74 %
30.12.2021 10:46 13,9 C 13,3 C 12,2 C 99 % 1015,6 hPa 0,0 l/m 0 min 0 min 50 W/m 16,1 km/h (3 Bft) 91,49 %
30.12.2021 10:48 13,9 C 13,3 C 12,2 C 98 % 1015,5 hPa 0,0 l/m 0 min 0 min 56 W/m 25,7 km/h (4 Bft) 93,62 %
30.12.2021 10:50 13,9 C 13,9 C 12,2 C 98 % 1015,5 hPa 0,0 l/m 0 min 0 min 56 W/m 16,1 km/h (3 Bft) 93,62 %
30.12.2021 10:52 14,0 C 13,9 C 12,2 C 98 % 1015,6 hPa 0,0 l/m 0 min 0 min 69 W/m 19,3 km/h (3 Bft) 89,36 %
30.12.2021 10:54 14,1 C 13,9 C 12,2 C 98 % 1015,4 hPa 0,0 l/m 0 min 0 min 75 W/m 22,5 km/h (4 Bft) 91,30 %
30.12.2021 10:56 14,1 C 13,9 C 12,8 C 98 % 1015,5 hPa 0,0 l/m 0 min 0 min 83 W/m 25,7 km/h (4 Bft) 91,49 %
30.12.2021 10:58 14,2 C 13,9 C 12,8 C 98 % 1015,5 hPa 0,0 l/m 0 min 0 min 85 W/m 22,5 km/h (4 Bft) 93,62 %
30.12.2021 11:00 14,2 C 13,9 C 12,8 C 98 % 1015,5 hPa 0,0 l/m 0 min 0 min 86 W/m 16,1 km/h (3 Bft) 93,62 %
30.12.2021 11:02 14,3 C 13,9 C 12,8 C 98 % 1015,5 hPa 0,0 l/m 0 min 0 min 106 W/m 29,0 km/h (5 Bft) 93,62 %
30.12.2021 11:04 14,3 C 13,9 C 12,8 C 98 % 1015,6 hPa 0,0 l/m 0 min 0 min 104 W/m 22,5 km/h (4 Bft) 93,62 %
30.12.2021 11:06 14,3 C 13,9 C 12,8 C 98 % 1015,6 hPa 0,0 l/m 0 min 0 min 78 W/m 16,1 km/h (3 Bft) 95,65 %
30.12.2021 11:08 14,3 C 13,9 C 12,8 C 98 % 1015,6 hPa 0,0 l/m 0 min 0 min 55 W/m 16,1 km/h (3 Bft) 93,62 %
30.12.2021 11:10 14,3 C 13,9 C 12,2 C 97 % 1015,7 hPa 0,0 l/m 0 min 0 min 38 W/m 16,1 km/h (3 Bft) 95,74 %
30.12.2021 11:12 14,3 C 13,9 C 12,8 C 97 % 1015,6 hPa 0,0 l/m 0 min 0 min 46 W/m 16,1 km/h (3 Bft) 95,74 %
30.12.2021 11:14 14,3 C 13,9 C 12,2 C 97 % 1015,7 hPa 0,0 l/m 0 min 0 min 48 W/m 16,1 km/h (3 Bft) 95,74 %
30.12.2021 11:16 14,3 C 13,9 C 12,8 C 97 % 1015,7 hPa 0,0 l/m 0 min 0 min 46 W/m 22,5 km/h (4 Bft) 93,62 %
30.12.2021 11:18 14,3 C 13,9 C 12,2 C 97 % 1015,7 hPa 0,0 l/m 0 min 0 min 35 W/m 16,1 km/h (3 Bft) 97,83 %
30.12.2021 11:20 14,3 C 13,9 C 12,2 C 97 % 1015,7 hPa 0,0 l/m 0 min 2 min 36 W/m 19,3 km/h (3 Bft) 93,62 %
30.12.2021 11:22 14,3 C 13,9 C 12,2 C 97 % 1015,7 hPa 0,0 l/m 0 min 0 min 39 W/m 16,1 km/h (3 Bft) 97,87 %
30.12.2021 11:24 14,3 C 13,9 C 12,2 C 97 % 1015,8 hPa 0,0 l/m 0 min 0 min 31 W/m 19,3 km/h (3 Bft) 93,62 %
30.12.2021 11:26 14,3 C 13,9 C 12,8 C 97 % 1015,8 hPa 0,0 l/m 0 min 0 min 38 W/m 16,1 km/h (3 Bft) 97,87 %
30.12.2021 11:28 14,3 C 13,9 C 12,2 C 97 % 1015,8 hPa 0,0 l/m 0 min 0 min 58 W/m 16,1 km/h (3 Bft) 97,87 %
30.12.2021 11:30 14,3 C 13,9 C 12,2 C 97 % 1015,8 hPa 0,0 l/m 0 min 0 min 62 W/m 22,5 km/h (4 Bft) 95,65 %
30.12.2021 11:32 14,3 C 13,9 C 12,2 C 97 % 1015,7 hPa 0,0 l/m 0 min 0 min 75 W/m 12,9 km/h (3 Bft) 97,87 %
30.12.2021 11:34 14,3 C 13,9 C 12,2 C 97 % 1015,8 hPa 0,0 l/m 0 min 0 min 70 W/m 22,5 km/h (4 Bft) 100,00 %
30.12.2021 11:36 14,3 C 13,9 C 12,8 C 97 % 1015,8 hPa 0,0 l/m 0 min 0 min 78 W/m 16,1 km/h (3 Bft) 100,00 %
30.12.2021 11:38 14,3 C 13,9 C 12,8 C 96 % 1015,8 hPa 0,0 l/m 0 min 0 min 83 W/m 22,5 km/h (4 Bft) 97,87 %
30.12.2021 11:40 14,3 C 13,9 C 12,8 C 96 % 1015,7 hPa 0,0 l/m 0 min 0 min 117 W/m 19,3 km/h (3 Bft) 97,87 %
30.12.2021 11:42 14,3 C 14,4 C 12,8 C 96 % 1015,7 hPa 0,0 l/m 0 min 0 min 116 W/m 19,3 km/h (3 Bft) 100,00 %
30.12.2021 11:44 14,3 C 14,4 C 12,8 C 96 % 1015,7 hPa 0,0 l/m 0 min 0 min 98 W/m 25,7 km/h (4 Bft) 100,00 %
30.12.2021 11:46 14,3 C 14,4 C 12,8 C 96 % 1015,8 hPa 0,0 l/m 0 min 0 min 97 W/m 19,3 km/h (3 Bft) 97,87 %
30.12.2021 11:48 14,3 C 14,4 C 12,8 C 96 % 1015,9 hPa 0,0 l/m 0 min 0 min 95 W/m 19,3 km/h (3 Bft) 100,00 %
30.12.2021 11:50 14,3 C 14,4 C 12,8 C 96 % 1015,9 hPa 0,0 l/m 0 min 0 min 95 W/m 16,1 km/h (3 Bft) 97,87 %
30.12.2021 11:52 14,3 C 14,4 C 12,8 C 96 % 1015,8 hPa 0,0 l/m 0 min 0 min 82 W/m 16,1 km/h (3 Bft) 97,87 %
30.12.2021 11:54 14,3 C 14,4 C 12,8 C 96 % 1015,7 hPa 0,0 l/m 0 min 0 min 93 W/m 22,5 km/h (4 Bft) 100,00 %
30.12.2021 11:56 14,3 C 13,9 C 12,8 C 96 % 1015,7 hPa 0,0 l/m 0 min 0 min 73 W/m 19,3 km/h (3 Bft) 100,00 %
30.12.2021 12:00 14,4 C 13,9 C 12,8 C 95 % 1015,7 hPa 0,0 l/m 0 min 0 min 49 W/m 25,7 km/h (4 Bft) 100,00 %
30.12.2021 12:02 14,4 C 13,9 C 12,8 C 95 % 1015,7 hPa 0,0 l/m 0 min 0 min 61 W/m 16,1 km/h (3 Bft) 100,00 %
30.12.2021 12:04 14,4 C 13,9 C 12,8 C 95 % 1015,8 hPa 0,0 l/m 0 min 0 min 66 W/m 12,9 km/h (3 Bft) 100,00 %
30.12.2021 12:08 14,4 C 13,9 C 12,8 C 95 % 1015,8 hPa 0,0 l/m 0 min 0 min 55 W/m 22,5 km/h (4 Bft) 100,00 %
30.12.2021 12:10 14,4 C 13,9 C 12,8 C 95 % 1015,7 hPa 0,0 l/m 0 min 0 min 78 W/m 16,1 km/h (3 Bft) 100,00 %
30.12.2021 12:12 14,4 C 13,9 C 12,8 C 95 % 1015,8 hPa 0,0 l/m 0 min 0 min 65 W/m 16,1 km/h (3 Bft) 100,00 %
30.12.2021 12:14 14,4 C 13,9 C 12,8 C 95 % 1015,7 hPa 0,0 l/m 0 min 0 min 63 W/m 35,4 km/h (5 Bft) 100,00 %
30.12.2021 12:16 14,4 C 13,9 C 12,8 C 94 % 1015,7 hPa 0,0 l/m 0 min 0 min 52 W/m 22,5 km/h (4 Bft) 100,00 %
30.12.2021 12:18 14,5 C 13,9 C 12,8 C 94 % 1015,7 hPa 0,0 l/m 0 min 0 min 33 W/m 12,9 km/h (3 Bft) 97,87 %
30.12.2021 12:20 14,5 C 13,9 C 12,8 C 94 % 1015,8 hPa 0,0 l/m 0 min 0 min 44 W/m 16,1 km/h (3 Bft) 100,00 %
30.12.2021 12:22 14,5 C 13,9 C 12,8 C 94 % 1015,8 hPa 0,0 l/m 0 min 0 min 72 W/m 22,5 km/h (4 Bft) 97,83 %
30.12.2021 12:24 14,5 C 13,9 C 12,8 C 94 % 1015,7 hPa 0,0 l/m 0 min 0 min 100 W/m 22,5 km/h (4 Bft) 97,87 %
30.12.2021 12:26 14,5 C 13,9 C 12,8 C 94 % 1015,6 hPa 0,0 l/m 0 min 0 min 96 W/m 16,1 km/h (3 Bft) 100,00 %
30.12.2021 12:28 14,5 C 14,4 C 12,8 C 94 % 1015,5 hPa 0,0 l/m 0 min 0 min 90 W/m 16,1 km/h (3 Bft) 100,00 %
30.12.2021 12:30 14,5 C 14,4 C 12,8 C 94 % 1015,6 hPa 0,0 l/m 0 min 0 min 86 W/m 25,7 km/h (4 Bft) 100,00 %
30.12.2021 12:32 14,5 C 14,4 C 12,8 C 94 % 1015,6 hPa 0,0 l/m 0 min 0 min 93 W/m 29,0 km/h (5 Bft) 95,74 %
30.12.2021 12:34 14,6 C 14,4 C 12,8 C 94 % 1015,6 hPa 0,0 l/m 0 min 0 min 85 W/m 22,5 km/h (4 Bft) 97,83 %
30.12.2021 12:36 14,6 C 14,4 C 12,8 C 94 % 1015,6 hPa 0,0 l/m 0 min 0 min 82 W/m 12,9 km/h (3 Bft) 97,87 %
30.12.2021 12:38 14,6 C 14,4 C 12,8 C 94 % 1015,7 hPa 0,0 l/m 0 min 0 min 85 W/m 25,7 km/h (4 Bft) 95,74 %
30.12.2021 12:40 14,6 C 14,4 C 12,8 C 94 % 1015,7 hPa 0,0 l/m 0 min 0 min 96 W/m 16,1 km/h (3 Bft) 97,87 %
30.12.2021 12:42 14,6 C 14,4 C 12,8 C 94 % 1015,7 hPa 0,0 l/m 0 min 0 min 82 W/m 12,9 km/h (3 Bft) 97,87 %
30.12.2021 12:44 14,6 C 14,4 C 12,8 C 94 % 1015,6 hPa 0,0 l/m 0 min 0 min 77 W/m 22,5 km/h (4 Bft) 97,87 %
30.12.2021 12:46 14,6 C 14,4 C 12,8 C 93 % 1015,7 hPa 0,0 l/m 0 min 0 min 59 W/m 19,3 km/h (3 Bft) 95,65 %
30.12.2021 12:48 14,6 C 14,4 C 12,8 C 93 % 1015,7 hPa 0,0 l/m 0 min 0 min 72 W/m 19,3 km/h (3 Bft) 95,74 %
30.12.2021 12:50 14,6 C 14,4 C 12,8 C 93 % 1015,7 hPa 0,0 l/m 0 min 0 min 77 W/m 19,3 km/h (3 Bft) 97,87 %
30.12.2021 12:52 14,6 C 13,9 C 12,8 C 93 % 1015,7 hPa 0,0 l/m 0 min 0 min 77 W/m 19,3 km/h (3 Bft) 97,87 %
30.12.2021 12:54 14,6 C 13,9 C 12,8 C 93 % 1015,7 hPa 0,0 l/m 0 min 0 min 62 W/m 22,5 km/h (4 Bft) 97,87 %
30.12.2021 12:56 14,6 C 13,9 C 12,8 C 93 % 1015,6 hPa 0,0 l/m 0 min 0 min 73 W/m 19,3 km/h (3 Bft) 97,83 %
30.12.2021 12:58 14,6 C 13,9 C 12,8 C 93 % 1015,7 hPa 0,0 l/m 0 min 0 min 74 W/m 19,3 km/h (3 Bft) 97,87 %
30.12.2021 13:00 14,6 C 13,9 C 12,8 C 93 % 1015,6 hPa 0,0 l/m 0 min 0 min 69 W/m 19,3 km/h (3 Bft) 95,74 %
30.12.2021 13:02 14,6 C 13,9 C 12,8 C 93 % 1015,5 hPa 0,0 l/m 0 min 0 min 68 W/m 25,7 km/h (4 Bft) 95,74 %
30.12.2021 13:04 14,6 C 13,9 C 12,8 C 93 % 1015,5 hPa 0,0 l/m 0 min 0 min 64 W/m 12,9 km/h (3 Bft) 97,87 %
30.12.2021 13:06 14,6 C 13,9 C 12,8 C 93 % 1015,6 hPa 0,0 l/m 0 min 0 min 59 W/m 22,5 km/h (4 Bft) 97,87 %
30.12.2021 13:08 14,6 C 13,9 C 12,8 C 93 % 1015,5 hPa 0,0 l/m 0 min 0 min 57 W/m 19,3 km/h (3 Bft) 97,87 %
30.12.2021 13:10 14,6 C 13,9 C 12,8 C 93 % 1015,5 hPa 0,0 l/m 0 min 0 min 55 W/m 12,9 km/h (3 Bft) 97,83 %
30.12.2021 13:12 14,6 C 13,9 C 12,8 C 93 % 1015,5 hPa 0,0 l/m 0 min 0 min 55 W/m 19,3 km/h (3 Bft) 100,00 %
30.12.2021 13:14 14,6 C 13,9 C 12,8 C 93 % 1015,5 hPa 0,0 l/m 0 min 0 min 58 W/m 16,1 km/h (3 Bft) 100,00 %
30.12.2021 13:16 14,6 C 13,9 C 12,8 C 93 % 1015,5 hPa 0,0 l/m 0 min 0 min 63 W/m 22,5 km/h (4 Bft) 100,00 %
30.12.2021 13:18 14,6 C 13,9 C 12,8 C 93 % 1015,5 hPa 0,0 l/m 0 min 0 min 62 W/m 16,1 km/h (3 Bft) 100,00 %
30.12.2021 13:20 14,6 C 13,9 C 12,8 C 93 % 1015,5 hPa 0,0 l/m 0 min 0 min 68 W/m 25,7 km/h (4 Bft) 100,00 %
30.12.2021 13:22 14,6 C 13,9 C 12,8 C 93 % 1015,4 hPa 0,0 l/m 0 min 0 min 74 W/m 19,3 km/h (3 Bft) 95,74 %
30.12.2021 13:24 14,6 C 14,4 C 12,8 C 93 % 1015,5 hPa 0,0 l/m 0 min 0 min 67 W/m 16,1 km/h (3 Bft) 97,87 %
30.12.2021 13:26 14,7 C 14,4 C 12,8 C 93 % 1015,5 hPa 0,0 l/m 0 min 0 min 70 W/m 16,1 km/h (3 Bft) 97,87 %
30.12.2021 13:28 14,7 C 14,4 C 12,8 C 92 % 1015,6 hPa 0,0 l/m 0 min 0 min 62 W/m 22,5 km/h (4 Bft) 97,87 %
30.12.2021 13:30 14,7 C 14,4 C 12,8 C 92 % 1015,5 hPa 0,0 l/m 0 min 0 min 63 W/m 16,1 km/h (3 Bft) 97,87 %
30.12.2021 13:32 14,7 C 14,4 C 12,8 C 92 % 1015,5 hPa 0,0 l/m 0 min 0 min 66 W/m 22,5 km/h (4 Bft) 93,48 %
30.12.2021 13:34 14,7 C 14,4 C 12,8 C 92 % 1015,5 hPa 0,0 l/m 0 min 0 min 71 W/m 16,1 km/h (3 Bft) 95,74 %
30.12.2021 13:36 14,7 C 14,4 C 12,8 C 92 % 1015,4 hPa 0,0 l/m 0 min 0 min 73 W/m 29,0 km/h (5 Bft) 97,87 %
30.12.2021 13:38 14,7 C 14,4 C 12,8 C 92 % 1015,5 hPa 0,0 l/m 0 min 0 min 74 W/m 22,5 km/h (4 Bft) 95,65 %
30.12.2021 13:40 14,7 C 14,4 C 12,8 C 92 % 1015,6 hPa 0,0 l/m 0 min 0 min 77 W/m 22,5 km/h (4 Bft) 95,74 %
30.12.2021 13:42 14,7 C 14,4 C 12,8 C 91 % 1015,5 hPa 0,0 l/m 0 min 0 min 78 W/m 19,3 km/h (3 Bft) 95,74 %
30.12.2021 13:44 14,7 C 14,4 C 12,8 C 91 % 1015,5 hPa 0,0 l/m 0 min 0 min 76 W/m 16,1 km/h (3 Bft) 95,65 %
30.12.2021 13:46 14,7 C 14,4 C 12,8 C 91 % 1015,5 hPa 0,0 l/m 0 min 0 min 76 W/m 25,7 km/h (4 Bft) 95,74 %
30.12.2021 13:48 14,7 C 14,4 C 12,8 C 91 % 1015,6 hPa 0,0 l/m 0 min 0 min 77 W/m 19,3 km/h (3 Bft) 95,74 %
30.12.2021 13:50 14,7 C 14,4 C 12,8 C 91 % 1015,5 hPa 0,0 l/m 0 min 0 min 76 W/m 25,7 km/h (4 Bft) 95,74 %
30.12.2021 13:52 14,8 C 14,4 C 12,8 C 91 % 1015,6 hPa 0,0 l/m 0 min 0 min 78 W/m 22,5 km/h (4 Bft) 95,74 %
30.12.2021 13:54 14,7 C 14,4 C 12,8 C 91 % 1015,5 hPa 0,0 l/m 0 min 0 min 82 W/m 19,3 km/h (3 Bft) 95,74 %
30.12.2021 13:56 14,7 C 14,4 C 12,8 C 91 % 1015,5 hPa 0,0 l/m 0 min 0 min 82 W/m 22,5 km/h (4 Bft) 95,65 %
30.12.2021 13:58 14,7 C 14,4 C 12,8 C 91 % 1015,6 hPa 0,0 l/m 0 min 0 min 80 W/m 19,3 km/h (3 Bft) 93,62 %
30.12.2021 14:00 14,7 C 14,4 C 12,8 C 91 % 1015,6 hPa 0,0 l/m 0 min 0 min 79 W/m 16,1 km/h (3 Bft) 95,74 %
30.12.2021 14:02 14,7 C 14,4 C 12,8 C 91 % 1015,6 hPa 0,0 l/m 0 min 0 min 80 W/m 16,1 km/h (3 Bft) 95,74 %
30.12.2021 14:04 14,8 C 14,4 C 12,8 C 91 % 1015,5 hPa 0,0 l/m 0 min 0 min 77 W/m 12,9 km/h (3 Bft) 95,74 %
30.12.2021 14:06 14,8 C 14,4 C 12,8 C 91 % 1015,6 hPa 0,0 l/m 0 min 0 min 74 W/m 25,7 km/h (4 Bft) 95,74 %
30.12.2021 14:08 14,8 C 14,4 C 12,8 C 91 % 1015,7 hPa 0,0 l/m 0 min 0 min 70 W/m 19,3 km/h (3 Bft) 97,83 %
30.12.2021 14:10 14,8 C 14,4 C 12,8 C 91 % 1015,6 hPa 0,0 l/m 0 min 0 min 71 W/m 22,5 km/h (4 Bft) 95,74 %
30.12.2021 14:12 14,8 C 14,4 C 12,8 C 91 % 1015,6 hPa 0,0 l/m 0 min 0 min 80 W/m 22,5 km/h (4 Bft) 95,74 %
30.12.2021 14:14 14,8 C 14,4 C 12,8 C 91 % 1015,6 hPa 0,0 l/m 0 min 0 min 86 W/m 22,5 km/h (4 Bft) 97,87 %
30.12.2021 14:16 14,8 C 14,4 C 12,8 C 91 % 1015,6 hPa 0,0 l/m 0 min 0 min 87 W/m 22,5 km/h (4 Bft) 97,87 %
30.12.2021 14:18 14,8 C 14,4 C 12,8 C 91 % 1015,6 hPa 0,0 l/m 0 min 0 min 84 W/m 22,5 km/h (4 Bft) 97,87 %
30.12.2021 14:20 14,8 C 14,4 C 12,8 C 91 % 1015,6 hPa 0,0 l/m 0 min 0 min 93 W/m 16,1 km/h (3 Bft) 97,83 %
30.12.2021 14:22 14,8 C 14,4 C 12,8 C 91 % 1015,6 hPa 0,0 l/m 0 min 0 min 97 W/m 25,7 km/h (4 Bft) 95,74 %
30.12.2021 14:24 14,8 C 14,4 C 12,8 C 91 % 1015,7 hPa 0,0 l/m 0 min 0 min 97 W/m 32,2 km/h (5 Bft) 97,87 %
30.12.2021 14:26 14,8 C 14,4 C 12,8 C 91 % 1015,7 hPa 0,0 l/m 0 min 0 min 91 W/m 16,1 km/h (3 Bft) 95,74 %
30.12.2021 14:28 14,8 C 14,4 C 12,8 C 91 % 1015,7 hPa 0,0 l/m 0 min 0 min 85 W/m 22,5 km/h (4 Bft) 100,00 %
30.12.2021 14:30 14,8 C 14,4 C 12,8 C 91 % 1015,8 hPa 0,0 l/m 0 min 0 min 72 W/m 19,3 km/h (3 Bft) 100,00 %
30.12.2021 14:32 14,8 C 14,4 C 12,8 C 91 % 1015,8 hPa 0,0 l/m 0 min 0 min 66 W/m 35,4 km/h (5 Bft) 100,00 %
30.12.2021 14:34 14,9 C 14,4 C 12,8 C 90 % 1015,9 hPa 0,0 l/m 0 min 0 min 73 W/m 25,7 km/h (4 Bft) 100,00 %
30.12.2021 14:36 14,9 C 14,4 C 12,8 C 90 % 1015,9 hPa 0,0 l/m 0 min 0 min 70 W/m 19,3 km/h (3 Bft) 97,87 %
30.12.2021 14:38 14,9 C 14,4 C 12,8 C 91 % 1015,9 hPa 0,0 l/m 0 min 0 min 65 W/m 16,1 km/h (3 Bft) 97,87 %
30.12.2021 14:40 14,8 C 14,4 C 12,8 C 91 % 1015,9 hPa 0,0 l/m 0 min 0 min 69 W/m 19,3 km/h (3 Bft) 97,87 %
30.12.2021 14:42 14,8 C 14,4 C 12,8 C 91 % 1015,9 hPa 0,0 l/m 0 min 0 min 69 W/m 12,9 km/h (3 Bft) 95,74 %
30.12.2021 14:44 14,8 C 14,4 C 12,8 C 91 % 1015,9 hPa 0,0 l/m 0 min 0 min 62 W/m 25,7 km/h (4 Bft) 100,00 %
30.12.2021 14:46 14,8 C 14,4 C 12,8 C 91 % 1016,0 hPa 0,0 l/m 0 min 0 min 64 W/m 29,0 km/h (5 Bft) 97,87 %
30.12.2021 14:48 14,8 C 14,4 C 12,8 C 90 % 1016,1 hPa 0,0 l/m 0 min 0 min 60 W/m 22,5 km/h (4 Bft) 97,87 %
30.12.2021 14:50 14,8 C 14,4 C 12,8 C 90 % 1016,2 hPa 0,0 l/m 0 min 0 min 53 W/m 22,5 km/h (4 Bft) 97,87 %
30.12.2021 14:52 14,8 C 14,4 C 12,8 C 90 % 1016,2 hPa 0,0 l/m 0 min 0 min 45 W/m 16,1 km/h (3 Bft) 97,87 %
30.12.2021 14:54 14,8 C 14,4 C 12,8 C 90 % 1016,2 hPa 0,0 l/m 0 min 0 min 37 W/m 19,3 km/h (3 Bft) 93,62 %
30.12.2021 14:56 14,8 C 13,9 C 12,8 C 90 % 1016,3 hPa 0,0 l/m 0 min 0 min 36 W/m 19,3 km/h (3 Bft) 97,83 %
30.12.2021 14:58 14,8 C 13,9 C 12,8 C 90 % 1016,3 hPa 0,0 l/m 0 min 0 min 34 W/m 16,1 km/h (3 Bft) 97,87 %
30.12.2021 15:00 14,8 C 13,9 C 12,8 C 90 % 1016,2 hPa 0,0 l/m 0 min 0 min 28 W/m 22,5 km/h (4 Bft) 97,87 %
30.12.2021 15:02 14,8 C 13,9 C 12,8 C 90 % 1016,3 hPa 0,0 l/m 0 min 0 min 27 W/m 16,1 km/h (3 Bft) 97,87 %
30.12.2021 15:04 14,7 C 13,9 C 12,8 C 90 % 1016,3 hPa 0,0 l/m 0 min 0 min 28 W/m 25,7 km/h (4 Bft) 97,87 %
30.12.2021 15:06 14,7 C 13,9 C 12,8 C 90 % 1016,3 hPa 0,0 l/m 0 min 0 min 35 W/m 19,3 km/h (3 Bft) 95,74 %
30.12.2021 15:08 14,7 C 13,9 C 12,8 C 90 % 1016,3 hPa 0,0 l/m 0 min 0 min 33 W/m 19,3 km/h (3 Bft) 97,83 %
30.12.2021 15:10 14,7 C 13,9 C 12,8 C 90 % 1016,4 hPa 0,0 l/m 0 min 0 min 28 W/m 16,1 km/h (3 Bft) 97,87 %
30.12.2021 15:12 14,7 C 13,9 C 12,8 C 91 % 1016,3 hPa 0,0 l/m 0 min 0 min 29 W/m 16,1 km/h (3 Bft) 100,00 %
30.12.2021 15:14 14,7 C 13,9 C 12,8 C 91 % 1016,4 hPa 0,0 l/m 0 min 0 min 30 W/m 12,9 km/h (3 Bft) 100,00 %
30.12.2021 15:16 14,7 C 13,9 C 12,2 C 91 % 1016,4 hPa 0,0 l/m 0 min 0 min 29 W/m 12,9 km/h (3 Bft) 100,00 %
30.12.2021 15:18 14,7 C 13,9 C 12,2 C 91 % 1016,4 hPa 0,0 l/m 0 min 0 min 32 W/m 19,3 km/h (3 Bft) 97,83 %
30.12.2021 15:20 14,7 C 13,9 C 12,2 C 91 % 1016,4 hPa 0,0 l/m 0 min 0 min 26 W/m 16,1 km/h (3 Bft) 100,00 %
30.12.2021 15:22 14,6 C 13,9 C 12,2 C 91 % 1016,4 hPa 0,0 l/m 0 min 0 min 28 W/m 19,3 km/h (3 Bft) 100,00 %
30.12.2021 15:24 14,6 C 13,9 C 12,2 C 91 % 1016,4 hPa 0,0 l/m 0 min 0 min 27 W/m 22,5 km/h (4 Bft) 100,00 %
30.12.2021 15:26 14,6 C 13,9 C 12,8 C 91 % 1016,4 hPa 0,0 l/m 0 min 0 min 31 W/m 16,1 km/h (3 Bft) 100,00 %
30.12.2021 15:28 14,6 C 13,9 C 12,2 C 91 % 1016,5 hPa 0,0 l/m 0 min 0 min 29 W/m 22,5 km/h (4 Bft) 100,00 %
30.12.2021 15:30 14,6 C 13,9 C 12,2 C 91 % 1016,5 hPa 0,0 l/m 0 min 0 min 25 W/m 12,9 km/h (3 Bft) 100,00 %
30.12.2021 15:32 14,6 C 13,9 C 12,2 C 91 % 1016,5 hPa 0,0 l/m 0 min 0 min 25 W/m 19,3 km/h (3 Bft) 100,00 %
30.12.2021 15:34 14,6 C 13,9 C 12,2 C 91 % 1016,6 hPa 0,0 l/m 0 min 0 min 24 W/m 12,9 km/h (3 Bft) 100,00 %
30.12.2021 15:36 14,6 C 13,9 C 12,2 C 91 % 1016,6 hPa 0,0 l/m 0 min 0 min 30 W/m 12,9 km/h (3 Bft) 100,00 %
30.12.2021 15:38 14,6 C 13,9 C 12,2 C 91 % 1016,6 hPa 0,0 l/m 0 min 0 min 28 W/m 19,3 km/h (3 Bft) 100,00 %
30.12.2021 15:40 14,6 C 13,9 C 12,2 C 91 % 1016,6 hPa 0,0 l/m 0 min 0 min 20 W/m 19,3 km/h (3 Bft) 97,87 %
30.12.2021 15:42 14,6 C 13,9 C 12,2 C 91 % 1016,6 hPa 0,0 l/m 0 min 0 min 18 W/m 12,9 km/h (3 Bft) 100,00 %
30.12.2021 15:44 14,6 C 13,9 C 12,2 C 91 % 1016,6 hPa 0,0 l/m 0 min 0 min 22 W/m 25,7 km/h (4 Bft) 100,00 %
30.12.2021 15:46 14,6 C 13,9 C 12,2 C 91 % 1016,7 hPa 0,0 l/m 0 min 0 min 20 W/m 12,9 km/h (3 Bft) 100,00 %
30.12.2021 15:48 14,6 C 13,9 C 12,2 C 91 % 1016,6 hPa 0,0 l/m 0 min 0 min 21 W/m 16,1 km/h (3 Bft) 100,00 %
30.12.2021 15:50 14,6 C 13,9 C 12,2 C 91 % 1016,7 hPa 0,0 l/m 0 min 0 min 18 W/m 16,1 km/h (3 Bft) 100,00 %
30.12.2021 15:52 14,6 C 13,9 C 12,2 C 91 % 1016,6 hPa 0,0 l/m 0 min 0 min 12 W/m 19,3 km/h (3 Bft) 100,00 %
30.12.2021 15:54 14,6 C 13,9 C 12,2 C 91 % 1016,6 hPa 0,0 l/m 0 min 0 min 15 W/m 16,1 km/h (3 Bft) 100,00 %
30.12.2021 15:56 14,6 C 13,9 C 12,2 C 91 % 1016,7 hPa 0,0 l/m 0 min 0 min 18 W/m 12,9 km/h (3 Bft) 97,87 %
30.12.2021 15:58 14,6 C 13,9 C 12,2 C 91 % 1016,7 hPa 0,0 l/m 0 min 0 min 17 W/m 12,9 km/h (3 Bft) 100,00 %
30.12.2021 16:00 14,5 C 13,9 C 12,2 C 91 % 1016,7 hPa 0,0 l/m 0 min 0 min 16 W/m 12,9 km/h (3 Bft) 100,00 %
30.12.2021 16:02 14,6 C 13,9 C 12,2 C 91 % 1016,7 hPa 0,0 l/m 0 min 0 min 14 W/m 19,3 km/h (3 Bft) 95,74 %
30.12.2021 16:04 14,5 C 13,9 C 12,2 C 91 % 1016,7 hPa 0,0 l/m 0 min 0 min 13 W/m 16,1 km/h (3 Bft) 97,87 %
30.12.2021 16:06 14,5 C 13,9 C 12,2 C 91 % 1016,8 hPa 0,0 l/m 0 min 0 min 12 W/m 16,1 km/h (3 Bft) 95,65 %
30.12.2021 16:08 14,5 C 13,9 C 12,2 C 91 % 1016,7 hPa 0,0 l/m 0 min 0 min 11 W/m 22,5 km/h (4 Bft) 97,87 %
30.12.2021 16:10 14,5 C 13,9 C 12,2 C 91 % 1016,8 hPa 0,0 l/m 0 min 0 min 11 W/m 22,5 km/h (4 Bft) 97,87 %
30.12.2021 16:12 14,5 C 13,9 C 12,2 C 91 % 1016,7 hPa 0,0 l/m 0 min 0 min 9 W/m 16,1 km/h (3 Bft) 97,87 %
30.12.2021 16:14 14,5 C 13,9 C 12,2 C 91 % 1016,8 hPa 0,0 l/m 0 min 0 min 9 W/m 25,7 km/h (4 Bft) 97,87 %
30.12.2021 16:16 14,5 C 13,9 C 12,2 C 91 % 1016,8 hPa 0,0 l/m 0 min 0 min 9 W/m 6,4 km/h (2 Bft) 95,74 %
30.12.2021 16:18 14,5 C 13,9 C 12,2 C 91 % 1016,9 hPa 0,0 l/m 0 min 0 min 8 W/m 22,5 km/h (4 Bft) 95,65 %
30.12.2021 16:20 14,5 C 13,9 C 12,2 C 91 % 1016,8 hPa 0,0 l/m 0 min 0 min 7 W/m 19,3 km/h (3 Bft) 97,87 %
30.12.2021 16:22 14,5 C 13,9 C 12,2 C 91 % 1016,9 hPa 0,0 l/m 0 min 0 min 5 W/m 25,7 km/h (4 Bft) 97,87 %
30.12.2021 16:24 14,5 C 13,9 C 12,2 C 91 % 1016,9 hPa 0,0 l/m 0 min 0 min 4 W/m 19,3 km/h (3 Bft) 97,87 %
30.12.2021 16:26 14,5 C 13,9 C 12,2 C 91 % 1016,9 hPa 0,0 l/m 0 min 0 min 0 W/m 25,7 km/h (4 Bft) 93,62 %
30.12.2021 16:28 14,5 C 13,9 C 12,2 C 91 % 1016,9 hPa 0,0 l/m 0 min 0 min 0 W/m 16,1 km/h (3 Bft) 91,49 %
30.12.2021 16:30 14,5 C 13,9 C 12,2 C 91 % 1016,9 hPa 0,0 l/m 0 min 0 min 0 W/m 25,7 km/h (4 Bft) 95,65 %
30.12.2021 16:32 14,5 C 13,9 C 12,2 C 91 % 1016,9 hPa 0,0 l/m 0 min 0 min 0 W/m 19,3 km/h (3 Bft) 93,62 %
30.12.2021 16:34 14,5 C 13,9 C 12,2 C 91 % 1016,9 hPa 0,0 l/m 0 min 0 min 0 W/m 25,7 km/h (4 Bft) 93,62 %
30.12.2021 16:36 14,5 C 13,9 C 12,2 C 91 % 1017,0 hPa 0,0 l/m 0 min 0 min 0 W/m 16,1 km/h (3 Bft) 93,62 %
30.12.2021 16:38 14,5 C 13,9 C 12,2 C 91 % 1017,0 hPa 0,0 l/m 0 min 0 min 0 W/m 29,0 km/h (5 Bft) 93,62 %
30.12.2021 16:40 14,5 C 13,9 C 12,2 C 91 % 1016,9 hPa 0,0 l/m 0 min 0 min 0 W/m 22,5 km/h (4 Bft) 95,74 %
30.12.2021 16:42 14,5 C 13,9 C 12,2 C 91 % 1016,9 hPa 0,0 l/m 0 min 0 min 0 W/m 25,7 km/h (4 Bft) 93,48 %
30.12.2021 16:44 14,5 C 13,9 C 12,2 C 91 % 1017,0 hPa 0,0 l/m 0 min 0 min 0 W/m 25,7 km/h (4 Bft) 95,74 %
30.12.2021 16:46 14,5 C 13,9 C 12,2 C 91 % 1017,1 hPa 0,0 l/m 0 min 0 min 0 W/m 29,0 km/h (5 Bft) 93,62 %
30.12.2021 16:48 14,5 C 13,9 C 12,2 C 91 % 1017,2 hPa 0,0 l/m 0 min 0 min 0 W/m 16,1 km/h (3 Bft) 93,62 %
30.12.2021 16:50 14,5 C 13,9 C 12,2 C 91 % 1017,2 hPa 0,0 l/m 0 min 0 min 0 W/m 19,3 km/h (3 Bft) 93,62 %
30.12.2021 16:52 14,5 C 13,9 C 11,7 C 91 % 1017,2 hPa 0,0 l/m 0 min 0 min 0 W/m 22,5 km/h (4 Bft) 93,62 %
30.12.2021 16:54 14,5 C 13,9 C 11,7 C 91 % 1017,2 hPa 0,0 l/m 0 min 0 min 0 W/m 16,1 km/h (3 Bft) 95,65 %
30.12.2021 16:56 14,4 C 13,9 C 11,7 C 91 % 1017,2 hPa 0,0 l/m 0 min 0 min 0 W/m 6,4 km/h (2 Bft) 93,62 %
30.12.2021 16:58 14,4 C 13,9 C 11,7 C 91 % 1017,2 hPa 0,0 l/m 0 min 0 min 0 W/m 19,3 km/h (3 Bft) 95,74 %
30.12.2021 17:00 14,4 C 13,9 C 11,7 C 91 % 1017,2 hPa 0,0 l/m 0 min 0 min 0 W/m 19,3 km/h (3 Bft) 95,74 %
30.12.2021 17:02 14,4 C 13,9 C 11,7 C 91 % 1017,3 hPa 0,0 l/m 0 min 0 min 0 W/m 16,1 km/h (3 Bft) 93,62 %
30.12.2021 17:04 14,4 C 13,9 C 11,7 C 91 % 1017,3 hPa 0,0 l/m 0 min 0 min 0 W/m 35,4 km/h (5 Bft) 95,74 %
30.12.2021 17:06 14,4 C 13,9 C 11,7 C 91 % 1017,3 hPa 0,0 l/m 0 min 0 min 0 W/m 16,1 km/h (3 Bft) 93,48 %
30.12.2021 17:08 14,4 C 13,9 C 11,7 C 92 % 1017,3 hPa 0,0 l/m 0 min 0 min 0 W/m 22,5 km/h (4 Bft) 95,74 %
30.12.2021 17:10 14,4 C 13,9 C 11,7 C 92 % 1017,3 hPa 0,0 l/m 0 min 0 min 0 W/m 45,1 km/h (6 Bft) 93,62 %
30.12.2021 17:12 14,4 C 13,9 C 11,7 C 92 % 1017,3 hPa 0,0 l/m 0 min 0 min 0 W/m 22,5 km/h (4 Bft) 97,87 %
30.12.2021 17:14 14,4 C 13,9 C 11,7 C 92 % 1017,3 hPa 0,0 l/m 0 min 0 min 0 W/m 29,0 km/h (5 Bft) 97,87 %
30.12.2021 17:16 14,4 C 13,9 C 11,7 C 92 % 1017,3 hPa 0,0 l/m 0 min 0 min 0 W/m 19,3 km/h (3 Bft) 97,87 %
30.12.2021 17:18 14,4 C 13,9 C 11,7 C 92 % 1017,3 hPa 0,0 l/m 0 min 0 min 0 W/m 22,5 km/h (4 Bft) 100,00 %
30.12.2021 17:20 14,4 C 13,9 C 11,7 C 92 % 1017,4 hPa 0,0 l/m 0 min 0 min 0 W/m 22,5 km/h (4 Bft) 100,00 %
30.12.2021 17:22 14,3 C 13,9 C 11,7 C 92 % 1017,4 hPa 0,0 l/m 0 min 0 min 0 W/m 25,7 km/h (4 Bft) 97,87 %
30.12.2021 17:24 14,3 C 13,9 C 11,7 C 92 % 1017,5 hPa 0,0 l/m 0 min 0 min 0 W/m 22,5 km/h (4 Bft) 100,00 %
30.12.2021 17:26 14,3 C 13,3 C 11,7 C 92 % 1017,4 hPa 0,0 l/m 0 min 0 min 0 W/m 19,3 km/h (3 Bft) 100,00 %
30.12.2021 17:28 14,3 C 13,3 C 11,7 C 92 % 1017,5 hPa 0,0 l/m 0 min 0 min 0 W/m 16,1 km/h (3 Bft) 97,87 %
30.12.2021 17:30 14,3 C 13,3 C 11,7 C 92 % 1017,5 hPa 0,0 l/m 0 min 0 min 0 W/m 25,7 km/h (4 Bft) 100,00 %
30.12.2021 17:32 14,3 C 13,3 C 11,7 C 92 % 1017,6 hPa 0,0 l/m 0 min 0 min 0 W/m 29,0 km/h (5 Bft) 100,00 %
30.12.2021 17:34 14,3 C 13,3 C 11,7 C 92 % 1017,6 hPa 0,0 l/m 0 min 0 min 0 W/m 25,7 km/h (4 Bft) 100,00 %
30.12.2021 17:36 14,3 C 13,3 C 11,7 C 93 % 1017,5 hPa 0,0 l/m 0 min 0 min 0 W/m 22,5 km/h (4 Bft) 100,00 %
30.12.2021 17:38 14,3 C 13,3 C 11,7 C 93 % 1017,6 hPa 0,0 l/m 0 min 0 min 0 W/m 29,0 km/h (5 Bft) 100,00 %
30.12.2021 17:40 14,3 C 13,3 C 11,7 C 93 % 1017,7 hPa 0,0 l/m 0 min 0 min 0 W/m 22,5 km/h (4 Bft) 97,83 %
30.12.2021 17:42 14,3 C 13,3 C 11,7 C 93 % 1017,7 hPa 0,0 l/m 0 min 0 min 0 W/m 19,3 km/h (3 Bft) 97,87 %
30.12.2021 17:44 14,3 C 13,3 C 11,7 C 93 % 1017,7 hPa 0,0 l/m 0 min 0 min 0 W/m 29,0 km/h (5 Bft) 100,00 %
30.12.2021 17:46 14,3 C 13,3 C 11,7 C 93 % 1017,7 hPa 0,0 l/m 0 min 0 min 0 W/m 22,5 km/h (4 Bft) 100,00 %
30.12.2021 17:48 14,3 C 13,3 C 11,7 C 93 % 1017,7 hPa 0,0 l/m 0 min 0 min 0 W/m 25,7 km/h (4 Bft) 100,00 %
30.12.2021 17:50 14,2 C 13,3 C 11,7 C 93 % 1017,8 hPa 0,0 l/m 0 min 0 min 0 W/m 22,5 km/h (4 Bft) 100,00 %
30.12.2021 17:52 14,2 C 13,3 C 11,7 C 93 % 1017,7 hPa 0,0 l/m 0 min 0 min 0 W/m 19,3 km/h (3 Bft) 100,00 %
30.12.2021 17:54 14,2 C 13,3 C 11,1 C 94 % 1017,8 hPa 0,0 l/m 0 min 0 min 0 W/m 12,9 km/h (3 Bft) 100,00 %
30.12.2021 17:56 14,1 C 13,3 C 11,7 C 94 % 1017,8 hPa 0,0 l/m 0 min 0 min 0 W/m 16,1 km/h (3 Bft) 100,00 %
30.12.2021 17:58 14,1 C 13,3 C 11,7 C 94 % 1017,9 hPa 0,0 l/m 0 min 0 min 0 W/m 25,7 km/h (4 Bft) 100,00 %
30.12.2021 18:00 14,1 C 13,3 C 11,7 C 94 % 1017,9 hPa 0,0 l/m 0 min 0 min 0 W/m 16,1 km/h (3 Bft) 100,00 %
30.12.2021 18:02 14,1 C 13,3 C 11,1 C 94 % 1017,8 hPa 0,0 l/m 0 min 0 min 0 W/m 22,5 km/h (4 Bft) 100,00 %
30.12.2021 18:04 14,1 C 13,3 C 11,1 C 94 % 1017,8 hPa 0,0 l/m 0 min 0 min 0 W/m 19,3 km/h (3 Bft) 100,00 %
30.12.2021 18:08 14,1 C 13,3 C 11,7 C 94 % 1017,8 hPa 0,0 l/m 0 min 0 min 0 W/m 29,0 km/h (5 Bft) 100,00 %
30.12.2021 18:10 14,1 C 13,3 C 11,7 C 94 % 1017,9 hPa 0,0 l/m 0 min 0 min 0 W/m 22,5 km/h (4 Bft) 100,00 %
30.12.2021 18:12 14,0 C 13,3 C 11,7 C 94 % 1017,9 hPa 0,0 l/m 0 min 0 min 0 W/m 19,3 km/h (3 Bft) 100,00 %
30.12.2021 18:14 14,0 C 13,3 C 11,7 C 94 % 1017,9 hPa 0,0 l/m 0 min 0 min 0 W/m 25,7 km/h (4 Bft) 100,00 %
30.12.2021 18:16 14,0 C 13,3 C 11,7 C 94 % 1017,9 hPa 0,0 l/m 0 min 0 min 0 W/m 12,9 km/h (3 Bft) 100,00 %
30.12.2021 18:18 14,0 C 13,3 C 11,1 C 94 % 1017,9 hPa 0,0 l/m 0 min 0 min 0 W/m 12,9 km/h (3 Bft) 100,00 %
30.12.2021 18:20 14,0 C 13,3 C 11,1 C 94 % 1017,9 hPa 0,0 l/m 0 min 0 min 0 W/m 16,1 km/h (3 Bft) 100,00 %
30.12.2021 18:22 14,0 C 13,3 C 11,1 C 94 % 1018,0 hPa 0,0 l/m 0 min 0 min 0 W/m 12,9 km/h (3 Bft) 100,00 %
30.12.2021 18:24 14,0 C 13,3 C 11,1 C 94 % 1018,0 hPa 0,0 l/m 0 min 0 min 0 W/m 16,1 km/h (3 Bft) 100,00 %
30.12.2021 18:26 14,0 C 13,3 C 11,1 C 94 % 1018,1 hPa 0,0 l/m 0 min 0 min 0 W/m 22,5 km/h (4 Bft) 100,00 %
30.12.2021 18:28 14,0 C 13,3 C 11,1 C 95 % 1018,2 hPa 0,0 l/m 0 min 0 min 0 W/m 22,5 km/h (4 Bft) 100,00 %
30.12.2021 18:30 13,9 C 13,3 C 11,1 C 95 % 1018,1 hPa 0,0 l/m 0 min 0 min 0 W/m 25,7 km/h (4 Bft) 100,00 %
30.12.2021 18:32 14,0 C 13,3 C 11,1 C 95 % 1018,2 hPa 0,0 l/m 0 min 0 min 0 W/m 19,3 km/h (3 Bft) 97,87 %
30.12.2021 18:34 14,0 C 13,3 C 11,1 C 95 % 1018,2 hPa 0,0 l/m 0 min 0 min 0 W/m 16,1 km/h (3 Bft) 100,00 %
30.12.2021 18:36 13,9 C 13,3 C 11,1 C 95 % 1018,2 hPa 0,0 l/m 0 min 0 min 0 W/m 16,1 km/h (3 Bft) 100,00 %
30.12.2021 18:38 13,9 C 13,3 C 11,1 C 95 % 1018,3 hPa 0,0 l/m 0 min 0 min 0 W/m 16,1 km/h (3 Bft) 100,00 %
30.12.2021 18:40 13,9 C 13,3 C 11,1 C 95 % 1018,3 hPa 0,0 l/m 0 min 0 min 0 W/m 19,3 km/h (3 Bft) 97,83 %
30.12.2021 18:42 13,9 C 13,3 C 11,1 C 95 % 1018,2 hPa 0,0 l/m 0 min 0 min 0 W/m 19,3 km/h (3 Bft) 95,74 %
30.12.2021 18:44 13,9 C 13,3 C 11,1 C 95 % 1018,2 hPa 0,0 l/m 0 min 0 min 0 W/m 16,1 km/h (3 Bft) 97,87 %
30.12.2021 18:46 13,9 C 13,3 C 11,1 C 95 % 1018,2 hPa 0,0 l/m 0 min 0 min 0 W/m 16,1 km/h (3 Bft) 97,87 %
30.12.2021 18:48 13,9 C 13,3 C 11,1 C 95 % 1018,2 hPa 0,0 l/m 0 min 0 min 0 W/m 12,9 km/h (3 Bft) 95,74 %
30.12.2021 18:50 13,9 C 13,3 C 11,1 C 95 % 1018,2 hPa 0,0 l/m 0 min 0 min 0 W/m 19,3 km/h (3 Bft) 95,74 %
30.12.2021 18:52 13,9 C 13,3 C 11,1 C 95 % 1018,2 hPa 0,0 l/m 0 min 0 min 0 W/m 25,7 km/h (4 Bft) 93,48 %
30.12.2021 18:54 13,9 C 13,3 C 11,1 C 95 % 1018,2 hPa 0,0 l/m 0 min 0 min 0 W/m 12,9 km/h (3 Bft) 95,74 %
30.12.2021 18:56 13,8 C 13,3 C 11,1 C 95 % 1018,2 hPa 0,0 l/m 0 min 0 min 0 W/m 16,1 km/h (3 Bft) 95,74 %
30.12.2021 18:58 13,8 C 13,3 C 11,1 C 95 % 1018,2 hPa 0,0 l/m 0 min 0 min 0 W/m 16,1 km/h (3 Bft) 95,74 %
30.12.2021 19:00 13,9 C 13,3 C 11,1 C 95 % 1018,3 hPa 0,0 l/m 0 min 0 min 0 W/m 16,1 km/h (3 Bft) 95,74 %
30.12.2021 19:02 13,9 C 13,3 C 11,1 C 95 % 1018,3 hPa 0,0 l/m 0 min 0 min 0 W/m 12,9 km/h (3 Bft) 95,92 %
30.12.2021 19:04 13,9 C 13,3 C 11,1 C 95 % 1018,2 hPa 0,0 l/m 0 min 0 min 0 W/m 22,5 km/h (4 Bft) 93,48 %
30.12.2021 19:06 13,9 C 13,3 C 11,1 C 95 % 1018,2 hPa 0,0 l/m 0 min 0 min 0 W/m 19,3 km/h (3 Bft) 93,62 %
30.12.2021 19:08 13,9 C 13,3 C 11,1 C 95 % 1018,2 hPa 0,0 l/m 0 min 0 min 0 W/m 22,5 km/h (4 Bft) 95,74 %
30.12.2021 19:10 14,0 C 13,3 C 11,7 C 95 % 1018,2 hPa 0,0 l/m 0 min 0 min 0 W/m 12,9 km/h (3 Bft) 93,62 %
30.12.2021 19:12 14,0 C 13,3 C 11,1 C 95 % 1018,2 hPa 0,0 l/m 0 min 0 min 0 W/m 12,9 km/h (3 Bft) 93,62 %
30.12.2021 19:14 14,0 C 13,3 C 11,7 C 95 % 1018,2 hPa 0,0 l/m 0 min 0 min 0 W/m 22,5 km/h (4 Bft) 93,48 %
30.12.2021 19:16 14,0 C 13,3 C 11,7 C 95 % 1018,1 hPa 0,0 l/m 0 min 0 min 0 W/m 12,9 km/h (3 Bft) 97,87 %
30.12.2021 19:18 14,1 C 13,3 C 11,7 C 95 % 1018,1 hPa 0,0 l/m 0 min 0 min 0 W/m 16,1 km/h (3 Bft) 93,62 %
30.12.2021 19:20 14,1 C 13,3 C 11,7 C 95 % 1018,2 hPa 0,0 l/m 0 min 0 min 0 W/m 16,1 km/h (3 Bft) 95,74 %
30.12.2021 19:22 14,1 C 13,3 C 11,7 C 95 % 1018,2 hPa 0,0 l/m 0 min 0 min 0 W/m 9,7 km/h (2 Bft) 95,74 %
30.12.2021 19:24 14,1 C 13,3 C 11,7 C 95 % 1018,1 hPa 0,0 l/m 0 min 0 min 0 W/m 16,1 km/h (3 Bft) 95,74 %
30.12.2021 19:26 14,1 C 13,3 C 11,7 C 95 % 1018,2 hPa 0,0 l/m 0 min 0 min 0 W/m 22,5 km/h (4 Bft) 93,48 %
30.12.2021 19:28 14,1 C 13,3 C 11,7 C 94 % 1018,2 hPa 0,0 l/m 0 min 0 min 0 W/m 22,5 km/h (4 Bft) 95,74 %
30.12.2021 19:30 14,2 C 13,3 C 11,7 C 94 % 1018,2 hPa 0,0 l/m 0 min 0 min 0 W/m 25,7 km/h (4 Bft) 95,74 %
30.12.2021 19:32 14,2 C 13,3 C 11,7 C 94 % 1018,2 hPa 0,0 l/m 0 min 0 min 0 W/m 22,5 km/h (4 Bft) 95,83 %
30.12.2021 19:34 14,2 C 13,3 C 11,7 C 94 % 1018,2 hPa 0,0 l/m 0 min 0 min 0 W/m 19,3 km/h (3 Bft) 95,65 %
30.12.2021 19:36 14,2 C 13,3 C 11,7 C 94 % 1018,2 hPa 0,0 l/m 0 min 0 min 0 W/m 16,1 km/h (3 Bft) 97,87 %
30.12.2021 19:38 14,2 C 13,3 C 11,7 C 94 % 1018,3 hPa 0,0 l/m 0 min 0 min 0 W/m 22,5 km/h (4 Bft) 97,87 %
30.12.2021 19:40 14,2 C 13,3 C 11,7 C 94 % 1018,2 hPa 0,0 l/m 0 min 0 min 0 W/m 16,1 km/h (3 Bft) 95,74 %
30.12.2021 19:42 14,2 C 13,3 C 11,7 C 94 % 1018,3 hPa 0,0 l/m 0 min 0 min 0 W/m 16,1 km/h (3 Bft) 95,74 %
30.12.2021 19:44 14,2 C 13,3 C 11,7 C 94 % 1018,2 hPa 0,0 l/m 0 min 0 min 0 W/m 12,9 km/h (3 Bft) 97,87 %
30.12.2021 19:46 14,1 C 13,3 C 11,7 C 94 % 1018,2 hPa 0,0 l/m 0 min 0 min 0 W/m 22,5 km/h (4 Bft) 97,83 %
30.12.2021 19:48 14,1 C 13,3 C 11,7 C 94 % 1018,2 hPa 0,0 l/m 0 min 0 min 0 W/m 19,3 km/h (3 Bft) 97,87 %
30.12.2021 19:50 14,1 C 13,3 C 11,7 C 94 % 1018,3 hPa 0,0 l/m 0 min 0 min 0 W/m 22,5 km/h (4 Bft) 97,87 %
30.12.2021 19:52 14,1 C 13,3 C 11,7 C 94 % 1018,3 hPa 0,0 l/m 0 min 0 min 0 W/m 12,9 km/h (3 Bft) 95,74 %
30.12.2021 19:54 14,1 C 13,3 C 11,7 C 94 % 1018,2 hPa 0,0 l/m 0 min 0 min 0 W/m 22,5 km/h (4 Bft) 97,87 %
30.12.2021 19:56 14,1 C 13,3 C 11,7 C 94 % 1018,3 hPa 0,0 l/m 0 min 0 min 0 W/m 9,7 km/h (2 Bft) 97,87 %
30.12.2021 19:58 14,1 C 13,3 C 11,7 C 94 % 1018,3 hPa 0,0 l/m 0 min 0 min 0 W/m 22,5 km/h (4 Bft) 97,83 %
30.12.2021 20:00 14,1 C 13,3 C 11,7 C 94 % 1018,3 hPa 0,0 l/m 0 min 0 min 0 W/m 12,9 km/h (3 Bft) 97,87 %
30.12.2021 20:02 14,2 C 13,3 C 11,7 C 94 % 1018,4 hPa 0,0 l/m 0 min 0 min 0 W/m 25,7 km/h (4 Bft) 97,87 %
30.12.2021 20:04 14,1 C 13,3 C 11,7 C 94 % 1018,4 hPa 0,0 l/m 0 min 0 min 0 W/m 19,3 km/h (3 Bft) 97,87 %
30.12.2021 20:06 14,2 C 13,3 C 11,7 C 94 % 1018,4 hPa 0,0 l/m 0 min 0 min 0 W/m 25,7 km/h (4 Bft) 100,00 %
30.12.2021 20:08 14,2 C 13,3 C 11,7 C 94 % 1018,4 hPa 0,0 l/m 0 min 0 min 0 W/m 25,7 km/h (4 Bft) 100,00 %
30.12.2021 20:10 14,2 C 13,3 C 11,7 C 94 % 1018,4 hPa 0,0 l/m 0 min 0 min 0 W/m 16,1 km/h (3 Bft) 100,00 %
30.12.2021 20:12 14,2 C 13,3 C 11,7 C 94 % 1018,4 hPa 0,0 l/m 0 min 0 min 0 W/m 16,1 km/h (3 Bft) 100,00 %
30.12.2021 20:14 14,2 C 13,3 C 11,7 C 94 % 1018,5 hPa 0,0 l/m 0 min 0 min 0 W/m 22,5 km/h (4 Bft) 100,00 %
30.12.2021 20:16 14,2 C 13,3 C 11,7 C 94 % 1018,5 hPa 0,0 l/m 0 min 0 min 0 W/m 25,7 km/h (4 Bft) 97,87 %
30.12.2021 20:18 14,2 C 13,3 C 11,7 C 94 % 1018,6 hPa 0,0 l/m 0 min 0 min 0 W/m 16,1 km/h (3 Bft) 100,00 %
30.12.2021 20:20 14,2 C 13,3 C 11,7 C 94 % 1018,5 hPa 0,0 l/m 0 min 0 min 0 W/m 12,9 km/h (3 Bft) 100,00 %
30.12.2021 20:22 14,2 C 13,3 C 11,7 C 94 % 1018,6 hPa 0,0 l/m 0 min 0 min 0 W/m 6,4 km/h (2 Bft) 97,83 %
30.12.2021 20:24 14,2 C 13,3 C 11,1 C 94 % 1018,6 hPa 0,0 l/m 0 min 0 min 0 W/m 19,3 km/h (3 Bft) 100,00 %
30.12.2021 20:26 14,2 C 13,3 C 11,7 C 94 % 1018,6 hPa 0,0 l/m 0 min 0 min 0 W/m 22,5 km/h (4 Bft) 100,00 %
30.12.2021 20:28 14,2 C 13,3 C 11,1 C 94 % 1018,6 hPa 0,0 l/m 0 min 0 min 0 W/m 19,3 km/h (3 Bft) 100,00 %
30.12.2021 20:30 14,1 C 13,3 C 11,1 C 94 % 1018,6 hPa 0,0 l/m 0 min 0 min 0 W/m 16,1 km/h (3 Bft) 100,00 %
30.12.2021 20:32 14,1 C 13,3 C 11,1 C 94 % 1018,6 hPa 0,0 l/m 0 min 0 min 0 W/m 12,9 km/h (3 Bft) 100,00 %
30.12.2021 20:34 14,1 C 12,8 C 11,1 C 94 % 1018,7 hPa 0,0 l/m 0 min 0 min 0 W/m 19,3 km/h (3 Bft) 100,00 %
30.12.2021 20:36 14,0 C 12,8 C 11,1 C 94 % 1018,7 hPa 0,0 l/m 0 min 0 min 0 W/m 25,7 km/h (4 Bft) 100,00 %
30.12.2021 20:38 13,9 C 12,8 C 11,1 C 95 % 1018,7 hPa 0,0 l/m 0 min 0 min 0 W/m 16,1 km/h (3 Bft) 100,00 %
30.12.2021 20:40 13,9 C 12,8 C 11,1 C 95 % 1018,7 hPa 0,0 l/m 0 min 0 min 0 W/m 6,4 km/h (2 Bft) 100,00 %
30.12.2021 20:42 13,8 C 12,8 C 10,6 C 95 % 1018,7 hPa 0,0 l/m 0 min 0 min 0 W/m 9,7 km/h (2 Bft) 97,87 %
30.12.2021 20:44 13,8 C 12,8 C 10,6 C 95 % 1018,7 hPa 0,0 l/m 0 min 0 min 0 W/m 22,5 km/h (4 Bft) 97,87 %
30.12.2021 20:46 13,8 C 12,8 C 10,6 C 95 % 1018,7 hPa 0,0 l/m 0 min 0 min 0 W/m 22,5 km/h (4 Bft) 97,83 %
30.12.2021 20:48 13,7 C 12,8 C 10,6 C 96 % 1018,8 hPa 0,0 l/m 0 min 0 min 0 W/m 19,3 km/h (3 Bft) 93,62 %
30.12.2021 20:50 13,7 C 12,8 C 10,6 C 96 % 1018,7 hPa 0,0 l/m 0 min 0 min 0 W/m 12,9 km/h (3 Bft) 97,87 %
30.12.2021 20:52 13,7 C 12,8 C 10,6 C 96 % 1018,8 hPa 0,0 l/m 0 min 0 min 0 W/m 12,9 km/h (3 Bft) 97,87 %
30.12.2021 20:54 13,7 C 12,8 C 10,6 C 96 % 1018,7 hPa 0,0 l/m 0 min 0 min 0 W/m 16,1 km/h (3 Bft) 97,87 %
30.12.2021 20:56 13,6 C 12,8 C 11,1 C 96 % 1018,7 hPa 0,0 l/m 0 min 0 min 0 W/m 19,3 km/h (3 Bft) 97,83 %
30.12.2021 20:58 13,6 C 12,8 C 11,1 C 96 % 1018,7 hPa 0,0 l/m 0 min 0 min 0 W/m 19,3 km/h (3 Bft) 97,87 %
30.12.2021 21:00 13,6 C 12,8 C 11,1 C 96 % 1018,7 hPa 0,0 l/m 0 min 0 min 0 W/m 12,9 km/h (3 Bft) 97,87 %
30.12.2021 21:02 13,6 C 12,8 C 11,1 C 96 % 1018,7 hPa 0,0 l/m 0 min 0 min 0 W/m 19,3 km/h (3 Bft) 97,92 %
30.12.2021 21:04 13,6 C 12,8 C 11,1 C 96 % 1018,7 hPa 0,0 l/m 0 min 0 min 0 W/m 19,3 km/h (3 Bft) 97,87 %
30.12.2021 21:06 13,6 C 12,8 C 11,1 C 97 % 1018,7 hPa 0,0 l/m 0 min 0 min 0 W/m 19,3 km/h (3 Bft) 97,87 %
30.12.2021 21:08 13,6 C 12,8 C 11,1 C 97 % 1018,8 hPa 0,0 l/m 0 min 0 min 0 W/m 16,1 km/h (3 Bft) 97,87 %
30.12.2021 21:10 13,6 C 12,8 C 11,1 C 97 % 1018,8 hPa 0,0 l/m 0 min 0 min 0 W/m 22,5 km/h (4 Bft) 97,87 %
30.12.2021 21:12 13,6 C 12,8 C 11,1 C 97 % 1018,8 hPa 0,0 l/m 0 min 0 min 0 W/m 16,1 km/h (3 Bft) 95,65 %
30.12.2021 21:14 13,6 C 12,8 C 11,1 C 97 % 1018,8 hPa 0,0 l/m 0 min 0 min 0 W/m 16,1 km/h (3 Bft) 100,00 %
30.12.2021 21:16 13,6 C 12,8 C 11,1 C 97 % 1018,9 hPa 0,0 l/m 0 min 0 min 0 W/m 12,9 km/h (3 Bft) 97,87 %
30.12.2021 21:18 13,6 C 12,8 C 11,1 C 97 % 1018,9 hPa 0,0 l/m 0 min 0 min 0 W/m 19,3 km/h (3 Bft) 95,74 %
30.12.2021 21:20 13,6 C 12,8 C 11,1 C 97 % 1018,9 hPa 0,0 l/m 0 min 0 min 0 W/m 25,7 km/h (4 Bft) 100,00 %
30.12.2021 21:22 13,6 C 12,8 C 11,1 C 97 % 1018,9 hPa 0,0 l/m 0 min 0 min 0 W/m 16,1 km/h (3 Bft) 100,00 %
30.12.2021 21:24 13,6 C 12,8 C 11,1 C 97 % 1018,9 hPa 0,0 l/m 0 min 0 min 0 W/m 19,3 km/h (3 Bft) 97,83 %
30.12.2021 21:26 13,6 C 12,8 C 11,1 C 97 % 1018,9 hPa 0,0 l/m 0 min 0 min 0 W/m 16,1 km/h (3 Bft) 100,00 %
30.12.2021 21:28 13,6 C 12,8 C 11,1 C 97 % 1018,9 hPa 0,0 l/m 0 min 0 min 0 W/m 16,1 km/h (3 Bft) 100,00 %
30.12.2021 21:30 13,6 C 12,8 C 11,1 C 97 % 1019,0 hPa 0,0 l/m 0 min 0 min 0 W/m 19,3 km/h (3 Bft) 100,00 %
30.12.2021 21:32 13,6 C 12,8 C 11,1 C 97 % 1019,1 hPa 0,0 l/m 0 min 0 min 0 W/m 19,3 km/h (3 Bft) 97,87 %
30.12.2021 21:34 13,6 C 12,8 C 11,1 C 97 % 1019,1 hPa 0,0 l/m 0 min 0 min 0 W/m 16,1 km/h (3 Bft) 100,00 %
30.12.2021 21:36 13,6 C 12,8 C 11,1 C 97 % 1019,1 hPa 0,0 l/m 0 min 0 min 0 W/m 16,1 km/h (3 Bft) 97,83 %
30.12.2021 21:38 13,6 C 12,8 C 11,1 C 97 % 1019,0 hPa 0,0 l/m 0 min 0 min 0 W/m 38,6 km/h (5 Bft) 97,87 %
30.12.2021 21:40 13,6 C 12,8 C 11,1 C 97 % 1019,1 hPa 0,0 l/m 0 min 0 min 0 W/m 16,1 km/h (3 Bft) 97,87 %
30.12.2021 21:42 13,6 C 12,8 C 11,1 C 97 % 1019,1 hPa 0,0 l/m 0 min 0 min 0 W/m 22,5 km/h (4 Bft) 97,87 %
30.12.2021 21:44 13,6 C 12,8 C 11,1 C 97 % 1019,1 hPa 0,0 l/m 0 min 0 min 0 W/m 16,1 km/h (3 Bft) 95,74 %
30.12.2021 21:46 13,6 C 12,8 C 11,1 C 97 % 1019,1 hPa 0,0 l/m 0 min 0 min 0 W/m 22,5 km/h (4 Bft) 97,87 %
30.12.2021 21:48 13,6 C 12,8 C 11,1 C 97 % 1019,2 hPa 0,0 l/m 0 min 0 min 0 W/m 19,3 km/h (3 Bft) 97,83 %
30.12.2021 21:50 13,7 C 12,8 C 11,1 C 97 % 1019,1 hPa 0,0 l/m 0 min 0 min 0 W/m 16,1 km/h (3 Bft) 95,74 %
30.12.2021 21:52 13,7 C 12,8 C 11,1 C 97 % 1019,2 hPa 0,0 l/m 0 min 0 min 0 W/m 9,7 km/h (2 Bft) 97,87 %
30.12.2021 21:54 13,6 C 12,8 C 11,1 C 97 % 1019,3 hPa 0,0 l/m 0 min 0 min 0 W/m 12,9 km/h (3 Bft) 97,87 %
30.12.2021 21:56 13,6 C 12,8 C 11,1 C 96 % 1019,2 hPa 0,0 l/m 0 min 0 min 0 W/m 19,3 km/h (3 Bft) 97,87 %
30.12.2021 21:58 13,6 C 12,8 C 11,1 C 96 % 1019,2 hPa 0,0 l/m 0 min 0 min 0 W/m 12,9 km/h (3 Bft) 95,74 %
30.12.2021 22:00 13,6 C 12,8 C 11,1 C 96 % 1019,2 hPa 0,0 l/m 0 min 0 min 0 W/m 16,1 km/h (3 Bft) 97,83 %
30.12.2021 22:02 13,6 C 12,8 C 11,1 C 96 % 1019,3 hPa 0,0 l/m 0 min 0 min 0 W/m 16,1 km/h (3 Bft) 95,74 %
30.12.2021 22:04 13,6 C 12,8 C 11,1 C 96 % 1019,2 hPa 0,0 l/m 0 min 0 min 0 W/m 29,0 km/h (5 Bft) 97,87 %
30.12.2021 22:06 13,6 C 12,8 C 11,1 C 96 % 1019,3 hPa 0,0 l/m 0 min 0 min 0 W/m 19,3 km/h (3 Bft) 95,74 %
30.12.2021 22:08 13,6 C 12,8 C 11,1 C 96 % 1019,3 hPa 0,0 l/m 0 min 0 min 0 W/m 16,1 km/h (3 Bft) 95,74 %
30.12.2021 22:10 13,6 C 12,8 C 11,1 C 96 % 1019,5 hPa 0,0 l/m 0 min 0 min 0 W/m 29,0 km/h (5 Bft) 97,87 %
30.12.2021 22:12 13,6 C 12,8 C 11,1 C 96 % 1019,4 hPa 0,0 l/m 0 min 0 min 0 W/m 6,4 km/h (2 Bft) 95,65 %
30.12.2021 22:14 13,7 C 12,8 C 11,1 C 96 % 1019,5 hPa 0,0 l/m 0 min 0 min 0 W/m 25,7 km/h (4 Bft) 95,74 %
30.12.2021 22:16 13,7 C 12,8 C 11,1 C 96 % 1019,6 hPa 0,0 l/m 0 min 0 min 0 W/m 29,0 km/h (5 Bft) 95,74 %
30.12.2021 22:18 13,7 C 12,8 C 11,1 C 96 % 1019,4 hPa 0,0 l/m 0 min 0 min 0 W/m 12,9 km/h (3 Bft) 93,62 %
30.12.2021 22:20 13,7 C 12,8 C 11,1 C 96 % 1019,5 hPa 0,0 l/m 0 min 0 min 0 W/m 12,9 km/h (3 Bft) 95,74 %
30.12.2021 22:22 13,6 C 12,8 C 11,1 C 96 % 1019,5 hPa 0,0 l/m 0 min 0 min 0 W/m 12,9 km/h (3 Bft) 95,74 %
30.12.2021 22:24 13,7 C 12,8 C 11,1 C 96 % 1019,5 hPa 0,0 l/m 0 min 0 min 0 W/m 19,3 km/h (3 Bft) 93,48 %
30.12.2021 22:26 13,7 C 12,8 C 11,1 C 96 % 1019,6 hPa 0,0 l/m 0 min 0 min 0 W/m 12,9 km/h (3 Bft) 95,74 %
30.12.2021 22:28 13,7 C 12,8 C 11,1 C 96 % 1019,6 hPa 0,0 l/m 0 min 0 min 0 W/m 16,1 km/h (3 Bft) 97,87 %
30.12.2021 22:30 13,7 C 12,8 C 11,1 C 96 % 1019,6 hPa 0,0 l/m 0 min 0 min 0 W/m 25,7 km/h (4 Bft) 97,87 %
30.12.2021 22:32 13,7 C 13,3 C 11,1 C 96 % 1019,6 hPa 0,0 l/m 0 min 0 min 0 W/m 16,1 km/h (3 Bft) 95,74 %
30.12.2021 22:34 13,7 C 12,8 C 11,1 C 96 % 1019,6 hPa 0,0 l/m 0 min 0 min 0 W/m 9,7 km/h (2 Bft) 95,74 %
30.12.2021 22:36 13,7 C 12,8 C 11,1 C 96 % 1019,6 hPa 0,0 l/m 0 min 0 min 0 W/m 19,3 km/h (3 Bft) 97,83 %
30.12.2021 22:38 13,7 C 12,8 C 11,1 C 95 % 1019,7 hPa 0,0 l/m 0 min 0 min 0 W/m 16,1 km/h (3 Bft) 97,87 %
30.12.2021 22:40 13,7 C 12,8 C 11,1 C 95 % 1019,7 hPa 0,0 l/m 0 min 0 min 0 W/m 12,9 km/h (3 Bft) 95,74 %
30.12.2021 22:42 13,7 C 12,8 C 11,1 C 95 % 1019,7 hPa 0,0 l/m 0 min 0 min 0 W/m 16,1 km/h (3 Bft) 91,49 %
30.12.2021 22:44 13,7 C 12,8 C 11,1 C 96 % 1019,7 hPa 0,0 l/m 0 min 0 min 0 W/m 16,1 km/h (3 Bft) 93,62 %
30.12.2021 22:46 13,7 C 12,8 C 11,1 C 96 % 1019,7 hPa 0,0 l/m 0 min 0 min 0 W/m 22,5 km/h (4 Bft) 95,74 %
30.12.2021 22:48 13,7 C 12,8 C 11,1 C 96 % 1019,6 hPa 0,0 l/m 0 min 0 min 0 W/m 25,7 km/h (4 Bft) 93,48 %
30.12.2021 22:50 13,6 C 12,8 C 11,1 C 96 % 1019,6 hPa 0,0 l/m 0 min 0 min 0 W/m 16,1 km/h (3 Bft) 95,74 %
30.12.2021 22:52 13,6 C 12,8 C 11,1 C 96 % 1019,6 hPa 0,0 l/m 0 min 0 min 0 W/m 19,3 km/h (3 Bft) 95,74 %
30.12.2021 22:54 13,6 C 12,8 C 11,1 C 96 % 1019,6 hPa 0,0 l/m 0 min 0 min 0 W/m 12,9 km/h (3 Bft) 97,87 %
30.12.2021 22:56 13,6 C 12,8 C 11,1 C 96 % 1019,6 hPa 0,0 l/m 0 min 0 min 0 W/m 22,5 km/h (4 Bft) 97,87 %
30.12.2021 22:58 13,6 C 12,8 C 11,1 C 96 % 1019,6 hPa 0,0 l/m 0 min 0 min 0 W/m 12,9 km/h (3 Bft) 97,87 %
30.12.2021 23:00 13,6 C 12,8 C 11,1 C 96 % 1019,6 hPa 0,0 l/m 0 min 0 min 0 W/m 12,9 km/h (3 Bft) 97,83 %
30.12.2021 23:02 13,6 C 12,8 C 11,1 C 96 % 1019,6 hPa 0,0 l/m 0 min 0 min 0 W/m 16,1 km/h (3 Bft) 95,74 %
30.12.2021 23:04 13,6 C 12,8 C 11,1 C 96 % 1019,6 hPa 0,0 l/m 0 min 0 min 0 W/m 16,1 km/h (3 Bft) 95,74 %
30.12.2021 23:06 13,6 C 12,8 C 11,1 C 96 % 1019,7 hPa 0,0 l/m 0 min 0 min 0 W/m 16,1 km/h (3 Bft) 97,87 %
30.12.2021 23:08 13,6 C 12,8 C 11,1 C 95 % 1019,6 hPa 0,0 l/m 0 min 0 min 0 W/m 16,1 km/h (3 Bft) 97,87 %
30.12.2021 23:10 13,6 C 12,8 C 11,1 C 95 % 1019,7 hPa 0,0 l/m 0 min 0 min 0 W/m 16,1 km/h (3 Bft) 97,87 %
30.12.2021 23:12 13,6 C 12,8 C 11,1 C 95 % 1019,7 hPa 0,0 l/m 0 min 0 min 0 W/m 22,5 km/h (4 Bft) 97,83 %
30.12.2021 23:14 13,6 C 12,8 C 11,1 C 95 % 1019,7 hPa 0,0 l/m 0 min 0 min 0 W/m 25,7 km/h (4 Bft) 100,00 %
30.12.2021 23:16 13,6 C 12,8 C 11,1 C 95 % 1019,6 hPa 0,0 l/m 0 min 0 min 0 W/m 16,1 km/h (3 Bft) 100,00 %
30.12.2021 23:18 13,6 C 12,8 C 11,1 C 95 % 1019,7 hPa 0,0 l/m 0 min 0 min 0 W/m 22,5 km/h (4 Bft) 100,00 %
30.12.2021 23:20 13,6 C 12,8 C 11,1 C 95 % 1019,7 hPa 0,0 l/m 0 min 0 min 0 W/m 19,3 km/h (3 Bft) 100,00 %
30.12.2021 23:22 13,6 C 12,8 C 11,1 C 95 % 1019,7 hPa 0,0 l/m 0 min 0 min 0 W/m 16,1 km/h (3 Bft) 100,00 %
30.12.2021 23:24 13,6 C 12,8 C 11,1 C 95 % 1019,7 hPa 0,0 l/m 0 min 0 min 0 W/m 19,3 km/h (3 Bft) 100,00 %
30.12.2021 23:26 13,6 C 12,8 C 11,1 C 95 % 1019,7 hPa 0,0 l/m 0 min 0 min 0 W/m 25,7 km/h (4 Bft) 100,00 %
30.12.2021 23:28 13,6 C 12,8 C 11,1 C 95 % 1019,7 hPa 0,0 l/m 0 min 2 min 0 W/m 16,1 km/h (3 Bft) 100,00 %
30.12.2021 23:30 13,6 C 12,2 C 10,6 C 95 % 1019,7 hPa 0,0 l/m 0 min 2 min 0 W/m 19,3 km/h (3 Bft) 97,87 %
30.12.2021 23:32 13,6 C 12,2 C 10,6 C 95 % 1019,7 hPa 0,0 l/m 0 min 2 min 0 W/m 16,1 km/h (3 Bft) 100,00 %
30.12.2021 23:34 13,6 C 12,2 C 10,6 C 95 % 1019,6 hPa 0,0 l/m 0 min 2 min 0 W/m 25,7 km/h (4 Bft) 100,00 %
30.12.2021 23:36 13,5 C 12,2 C 10,6 C 95 % 1019,5 hPa 0,0 l/m 0 min 2 min 0 W/m 16,1 km/h (3 Bft) 100,00 %
30.12.2021 23:38 13,4 C 12,2 C 10,6 C 95 % 1019,5 hPa 0,0 l/m 0 min 2 min 0 W/m 22,5 km/h (4 Bft) 100,00 %
30.12.2021 23:40 13,4 C 12,2 C 10,6 C 95 % 1019,5 hPa 0,0 l/m 0 min 2 min 0 W/m 32,2 km/h (5 Bft) 100,00 %
30.12.2021 23:42 13,4 C 12,2 C 10,6 C 95 % 1019,5 hPa 0,0 l/m 0 min 0 min 0 W/m 19,3 km/h (3 Bft) 100,00 %
30.12.2021 23:44 13,4 C 12,2 C 10,6 C 95 % 1019,5 hPa 0,0 l/m 0 min 0 min 0 W/m 22,5 km/h (4 Bft) 97,87 %
30.12.2021 23:46 13,3 C 12,2 C 10,6 C 96 % 1019,4 hPa 0,0 l/m 0 min 0 min 0 W/m 22,5 km/h (4 Bft) 100,00 %
30.12.2021 23:48 13,3 C 12,8 C 10,6 C 96 % 1019,5 hPa 0,0 l/m 0 min 0 min 0 W/m 25,7 km/h (4 Bft) 100,00 %
30.12.2021 23:50 13,3 C 12,8 C 10,6 C 96 % 1019,4 hPa 0,0 l/m 0 min 0 min 0 W/m 32,2 km/h (5 Bft) 100,00 %
30.12.2021 23:52 13,3 C 12,8 C 10,6 C 96 % 1019,4 hPa 0,0 l/m 0 min 0 min 0 W/m 22,5 km/h (4 Bft) 100,00 %
30.12.2021 23:54 13,3 C 12,8 C 10,6 C 96 % 1019,4 hPa 0,0 l/m 0 min 0 min 0 W/m 22,5 km/h (4 Bft) 100,00 %
30.12.2021 23:56 13,3 C 12,8 C 10,6 C 96 % 1019,4 hPa 0,0 l/m 0 min 0 min 0 W/m 29,0 km/h (5 Bft) 100,00 %
30.12.2021 23:58 13,3 C 12,8 C 10,6 C 96 % 1019,5 hPa 0,0 l/m 0 min 0 min 0 W/m 19,3 km/h (3 Bft) 97,83 %
_ Min-Zeit 01:24 00:42 00:44 14:34 00:00 - - - - 00:44 00:58
Minimum _ 11,4 C 10,6 C 9,4 C 90 % 1011,0 hPa - - - - 3,2 km/h (1 Bft) 44,74 %
_ Max-Zeit 14:34 11:42 10:56 05:56 22:38 05:02 00:00 04:52 11:40 17:10 00:02
Maximum _ 14,9 C 14,4 C 12,8 C 100 % 1019,7 hPa 0,2 l/m 0 min 2 min 117 W/m 45,1 km/h
SO (6 Bft)
100,00 %
Durchschnitt _ 13,5 C 12,8 C 11,4 C 96 % 1015,5 hPa #1,0 l/m #0 min. #36 min. 49 W/m 17,7 km/h (3 Bft) 97,45 %
© 2021 W. Hausmann